| time (UTC) | temp F | wind direction | speed MPH | gust MPH | rain 1hr in | rain 24hr in | rain mn in | humidity % | barometer mb |
| 20260505201006 | 82 | 284 | 3.0 | 5.0 | 0.00 | 0.00 | 0.00 | 48 | 1013.8 |
| 20260505200900 | 82 | 288 | 3.0 | 5.0 | 0.00 | 0.00 | 0.00 | 48 | 1013.8 |
| 20260505200802 | 82 | 44 | 0.0 | 5.0 | 0.00 | 0.00 | 0.00 | 49 | 1013.8 |
| 20260505200702 | 82 | 233 | 0.0 | 5.0 | 0.00 | 0.00 | 0.00 | 51 | 1013.7 |
| 20260505200602 | 81 | 136 | 3.0 | 5.0 | 0.00 | 0.00 | 0.00 | 52 | 1013.8 |
| 20260505200506 | 80 | 269 | 2.0 | 5.0 | 0.00 | 0.00 | 0.00 | 50 | 1013.9 |
| 20260505200402 | 80 | 17 | 2.0 | 5.0 | 0.00 | 0.00 | 0.00 | 49 | 1013.9 |
| 20260505200303 | 81 | 225 | 2.0 | 5.0 | 0.00 | 0.00 | 0.00 | 49 | 1013.9 |
| 20260505200202 | 81 | 240 | 0.0 | 5.0 | 0.00 | 0.00 | 0.00 | 49 | 1013.9 |
| 20260505200008 | 82 | 34 | 0.0 | 5.0 | 0.00 | 0.00 | 0.00 | 47 | 1013.9 |
| 20260505195902 | 82 | 334 | 1.0 | 5.0 | 0.00 | 0.00 | 0.00 | 46 | 1014.0 |
| 20260505195803 | 83 | 50 | 2.0 | 5.0 | 0.00 | 0.00 | 0.00 | 47 | 1014.0 |
| 20260505195703 | 83 | 111 | 1.0 | 4.0 | 0.00 | 0.00 | 0.00 | 47 | 1014.0 |
| 20260505195603 | 83 | 303 | 3.0 | 4.0 | 0.00 | 0.00 | 0.00 | 47 | 1013.9 |
| 20260505195506 | 83 | 170 | 3.0 | 4.0 | 0.00 | 0.00 | 0.00 | 47 | 1013.9 |
| 20260505195304 | 83 | 66 | 0.0 | 5.0 | 0.00 | 0.00 | 0.00 | 47 | 1014.0 |
| 20260505195203 | 83 | 240 | 0.0 | 5.0 | 0.00 | 0.00 | 0.00 | 48 | 1014.0 |
| 20260505195007 | 82 | 324 | 0.0 | 5.0 | 0.00 | 0.00 | 0.00 | 47 | 1013.9 |
| 20260505194803 | 82 | 355 | 1.0 | 5.0 | 0.00 | 0.00 | 0.00 | 48 | 1013.9 |
| 20260505194703 | 82 | 25 | 2.0 | 5.0 | 0.00 | 0.00 | 0.00 | 47 | 1014.0 |
| 20260505194403 | 82 | 320 | 0.0 | 5.0 | 0.00 | 0.00 | 0.00 | 48 | 1013.9 |
| 20260505194303 | 82 | 349 | 0.0 | 5.0 | 0.00 | 0.00 | 0.00 | 47 | 1014.1 |
| 20260505194204 | 81 | 224 | 2.0 | 5.0 | 0.00 | 0.00 | 0.00 | 48 | 1014.1 |
| 20260505194007 | 81 | 8 | 0.0 | 5.0 | 0.00 | 0.00 | 0.00 | 50 | 1014.1 |
| 20260505193902 | 81 | 309 | 3.0 | 5.0 | 0.00 | 0.00 | 0.00 | 49 | 1014.0 |
| 20260505193803 | 82 | 292 | 2.0 | 5.0 | 0.00 | 0.00 | 0.00 | 48 | 1014.1 |
| 20260505193703 | 82 | 286 | 2.0 | 6.0 | 0.00 | 0.00 | 0.00 | 48 | 1014.1 |
| 20260505193506 | 82 | 325 | 1.0 | 6.0 | 0.00 | 0.00 | 0.00 | 47 | 1014.0 |
| 20260505193402 | 82 | 3 | 4.0 | 6.0 | 0.00 | 0.00 | 0.00 | 47 | 1014.0 |
| 20260505193303 | 82 | 326 | 3.0 | 6.0 | 0.00 | 0.00 | 0.00 | 48 | 1014.0 |
| 20260505193104 | 82 | 321 | 3.0 | 7.0 | 0.00 | 0.00 | 0.00 | 47 | 1014.1 |
| 20260505193007 | 82 | 305 | 3.0 | 7.0 | 0.00 | 0.00 | 0.00 | 49 | 1014.1 |
| 20260505192902 | 82 | 289 | 4.0 | 7.0 | 0.00 | 0.00 | 0.00 | 47 | 1014.2 |
| 20260505192803 | 82 | 302 | 4.0 | 7.0 | 0.00 | 0.00 | 0.00 | 48 | 1014.2 |
| 20260505192702 | 82 | 308 | 0.0 | 7.0 | 0.00 | 0.00 | 0.00 | 46 | 1014.3 |
| 20260505192602 | 82 | 17 | 4.0 | 7.0 | 0.00 | 0.00 | 0.00 | 47 | 1014.3 |
| 20260505192506 | 82 | 269 | 2.0 | 7.0 | 0.00 | 0.00 | 0.00 | 46 | 1014.3 |
| 20260505192403 | 82 | 324 | 1.0 | 7.0 | 0.00 | 0.00 | 0.00 | 45 | 1014.3 |
| 20260505192305 | 82 | 240 | 4.0 | 7.0 | 0.00 | 0.00 | 0.00 | 47 | 1014.4 |
| 20260505192202 | 83 | 195 | 2.0 | 4.0 | 0.00 | 0.00 | 0.00 | 47 | 1014.3 |
| 20260505192006 | 82 | 267 | 2.0 | 4.0 | 0.00 | 0.00 | 0.00 | 48 | 1014.5 |
| 20260505191801 | 82 | 322 | 0.0 | 5.0 | 0.00 | 0.00 | 0.00 | 48 | 1014.5 |
| 20260505191506 | 81 | 287 | 1.0 | 5.0 | 0.00 | 0.00 | 0.00 | 48 | 1014.5 |
| 20260505191403 | 81 | 343 | 3.0 | 5.0 | 0.00 | 0.00 | 0.00 | 48 | 1014.6 |
| 20260505191303 | 81 | 253 | 3.0 | 5.0 | 0.00 | 0.00 | 0.00 | 48 | 1014.6 |
| 20260505191203 | 81 | 135 | 0.0 | 5.0 | 0.00 | 0.00 | 0.00 | 47 | 1014.6 |
| 20260505190902 | 82 | 284 | 3.0 | 5.0 | 0.00 | 0.00 | 0.00 | 50 | 1014.7 |
| 20260505190703 | 81 | 134 | 0.0 | 5.0 | 0.00 | 0.00 | 0.00 | 50 | 1014.7 |
| 20260505190506 | 81 | 165 | 1.0 | 5.0 | 0.00 | 0.00 | 0.00 | 49 | 1014.8 |
| 20260505190402 | 81 | 316 | 0.0 | 5.0 | 0.00 | 0.00 | 0.00 | 49 | 1014.7 |
| 20260505190303 | 81 | 257 | 2.0 | 7.0 | 0.00 | 0.00 | 0.00 | 50 | 1014.7 |
| 20260505190203 | 81 | 230 | 2.0 | 7.0 | 0.00 | 0.00 | 0.00 | 51 | 1014.7 |
| 20260505190008 | 80 | 218 | 2.0 | 7.0 | 0.00 | 0.00 | 0.00 | 50 | 1014.8 |
| 20260505185801 | 79 | 284 | 1.0 | 7.0 | 0.00 | 0.00 | 0.00 | 51 | 1014.8 |
| 20260505185601 | 80 | 237 | 0.0 | 7.0 | 0.00 | 0.00 | 0.00 | 50 | 1014.8 |
| 20260505185506 | 80 | 315 | 5.0 | 7.0 | 0.00 | 0.00 | 0.00 | 50 | 1014.8 |
| 20260505185401 | 81 | 212 | 4.0 | 5.0 | 0.00 | 0.00 | 0.00 | 51 | 1014.9 |
| 20260505185304 | 81 | 277 | 2.0 | 5.0 | 0.00 | 0.00 | 0.00 | 49 | 1014.8 |
| 20260505185201 | 81 | 257 | 0.0 | 5.0 | 0.00 | 0.00 | 0.00 | 52 | 1014.8 |
| 20260505185102 | 80 | 140 | 4.0 | 5.0 | 0.00 | 0.00 | 0.00 | 52 | 1014.8 |
| 20260505185005 | 80 | 158 | 2.0 | 5.0 | 0.00 | 0.00 | 0.00 | 51 | 1014.8 |
| 20260505184903 | 80 | 309 | 2.0 | 5.0 | 0.00 | 0.00 | 0.00 | 50 | 1014.8 |
| 20260505184801 | 80 | 327 | 3.0 | 5.0 | 0.00 | 0.00 | 0.00 | 50 | 1014.8 |
| 20260505184702 | 80 | 143 | 0.0 | 6.0 | 0.00 | 0.00 | 0.00 | 50 | 1014.9 |
| 20260505184601 | 80 | 340 | 0.0 | 6.0 | 0.00 | 0.00 | 0.00 | 50 | 1014.9 |
| 20260505184506 | 80 | 165 | 0.0 | 6.0 | 0.00 | 0.00 | 0.00 | 49 | 1014.9 |
| 20260505184402 | 80 | 298 | 0.0 | 6.0 | 0.00 | 0.00 | 0.00 | 49 | 1015.0 |
| 20260505184301 | 80 | 231 | 0.0 | 6.0 | 0.00 | 0.00 | 0.00 | 50 | 1015.0 |
| 20260505184201 | 80 | 255 | 1.0 | 6.0 | 0.00 | 0.00 | 0.00 | 49 | 1015.0 |
| 20260505184101 | 80 | 277 | 3.0 | 6.0 | 0.00 | 0.00 | 0.00 | 49 | 1015.0 |
| 20260505184006 | 80 | 303 | 3.0 | 6.0 | 0.00 | 0.00 | 0.00 | 48 | 1015.0 |
| 20260505183903 | 80 | 304 | 2.0 | 6.0 | 0.00 | 0.00 | 0.00 | 48 | 1015.0 |
| 20260505183802 | 81 | 299 | 3.0 | 6.0 | 0.00 | 0.00 | 0.00 | 47 | 1015.0 |
| 20260505183701 | 81 | 277 | 2.0 | 6.0 | 0.00 | 0.00 | 0.00 | 49 | 1015.1 |
| 20260505183505 | 81 | 315 | 3.0 | 6.0 | 0.00 | 0.00 | 0.00 | 49 | 1015.0 |
| 20260505183401 | 81 | 333 | 0.0 | 6.0 | 0.00 | 0.00 | 0.00 | 49 | 1015.1 |
| 20260505183301 | 81 | 298 | 4.0 | 6.0 | 0.00 | 0.00 | 0.00 | 49 | 1015.1 |
| 20260505183201 | 81 | 276 | 3.0 | 6.0 | 0.00 | 0.00 | 0.00 | 50 | 1015.1 |
| 20260505182601 | 80 | 345 | 2.0 | 8.0 | 0.00 | 0.00 | 0.00 | 50 | 1015.2 |
| 20260505182400 | 80 | 31 | 3.0 | 8.0 | 0.00 | 0.00 | 0.00 | 50 | 1015.2 |
| 20260505182305 | 80 | 25 | 2.0 | 8.0 | 0.00 | 0.00 | 0.00 | 50 | 1015.3 |
| 20260505182202 | 80 | 29 | 4.0 | 7.0 | 0.00 | 0.00 | 0.00 | 50 | 1015.1 |
| 20260505182102 | 81 | 294 | 3.0 | 7.0 | 0.00 | 0.00 | 0.00 | 48 | 1015.2 |
| 20260505181902 | 81 | 354 | 0.0 | 6.0 | 0.00 | 0.00 | 0.00 | 50 | 1015.2 |
| 20260505181702 | 80 | 167 | 2.0 | 6.0 | 0.00 | 0.00 | 0.00 | 49 | 1015.1 |
| 20260505181601 | 80 | 91 | 0.0 | 6.0 | 0.00 | 0.00 | 0.00 | 49 | 1015.2 |
| 20260505181505 | 80 | 239 | 0.0 | 6.0 | 0.00 | 0.00 | 0.00 | 49 | 1015.1 |
| 20260505181401 | 80 | 328 | 2.0 | 6.0 | 0.00 | 0.00 | 0.00 | 50 | 1015.1 |
| 20260505181302 | 80 | 270 | 1.0 | 6.0 | 0.00 | 0.00 | 0.00 | 50 | 1015.1 |
| 20260505180900 | 79 | 137 | 2.0 | 5.0 | 0.00 | 0.00 | 0.00 | 51 | 1015.1 |
| 20260505180801 | 79 | 29 | 5.0 | 5.0 | 0.00 | 0.00 | 0.00 | 52 | 1015.2 |
| 20260505180702 | 79 | 294 | 3.0 | 4.0 | 0.00 | 0.00 | 0.00 | 51 | 1015.2 |
| 20260505180402 | 81 | 231 | 2.0 | 4.0 | 0.00 | 0.00 | 0.00 | 49 | 1015.2 |
| 20260505180201 | 81 | 278 | 2.0 | 4.0 | 0.00 | 0.00 | 0.00 | 50 | 1015.2 |
| 20260505180008 | 81 | 33 | 2.0 | 4.0 | 0.00 | 0.00 | 0.00 | 49 | 1015.1 |
| 20260505175902 | 81 | 219 | 3.0 | 4.0 | 0.00 | 0.00 | 0.00 | 49 | 1015.2 |
| 20260505175801 | 81 | 39 | 1.0 | 4.0 | 0.00 | 0.00 | 0.00 | 49 | 1015.2 |
| 20260505175602 | 81 | 332 | 2.0 | 4.0 | 0.00 | 0.00 | 0.00 | 51 | 1015.3 |
| 20260505175505 | 80 | 264 | 0.0 | 4.0 | 0.00 | 0.00 | 0.00 | 52 | 1015.3 |
| 20260505175401 | 80 | 314 | 3.0 | 4.0 | 0.00 | 0.00 | 0.00 | 52 | 1015.2 |
| 20260505175301 | 80 | 334 | 2.0 | 4.0 | 0.00 | 0.00 | 0.00 | 51 | 1015.2 |
| 20260505175201 | 80 | 319 | 2.0 | 4.0 | 0.00 | 0.00 | 0.00 | 51 | 1015.2 |
| 20260505175101 | 80 | 307 | 2.0 | 4.0 | 0.00 | 0.00 | 0.00 | 50 | 1015.2 |
| 20260505175006 | 80 | 131 | 0.0 | 5.0 | 0.00 | 0.00 | 0.00 | 50 | 1015.2 |
| 20260505174901 | 80 | 162 | 3.0 | 5.0 | 0.00 | 0.00 | 0.00 | 49 | 1015.3 |
| 20260505174802 | 80 | 295 | 0.0 | 5.0 | 0.00 | 0.00 | 0.00 | 51 | 1015.2 |
| 20260505174701 | 80 | 331 | 3.0 | 5.0 | 0.00 | 0.00 | 0.00 | 51 | 1015.3 |
| 20260505174602 | 80 | 347 | 0.0 | 5.0 | 0.00 | 0.00 | 0.00 | 52 | 1015.3 |
| 20260505174506 | 80 | 279 | 2.0 | 5.0 | 0.00 | 0.00 | 0.00 | 50 | 1015.3 |
| 20260505174400 | 80 | 117 | 0.0 | 5.0 | 0.00 | 0.00 | 0.00 | 49 | 1015.3 |
| 20260505174202 | 80 | 324 | 2.0 | 5.0 | 0.00 | 0.00 | 0.00 | 50 | 1015.3 |
| 20260505174102 | 79 | 76 | 1.0 | 4.0 | 0.00 | 0.00 | 0.00 | 52 | 1015.3 |
| 20260505174006 | 79 | 142 | 2.0 | 4.0 | 0.00 | 0.00 | 0.00 | 51 | 1015.3 |
| 20260505173901 | 79 | 137 | 0.0 | 4.0 | 0.00 | 0.00 | 0.00 | 51 | 1015.3 |
| 20260505173801 | 79 | 150 | 3.0 | 4.0 | 0.00 | 0.00 | 0.00 | 52 | 1015.4 |
| 20260505173702 | 79 | 352 | 2.0 | 5.0 | 0.00 | 0.00 | 0.00 | 52 | 1015.3 |
| 20260505173602 | 79 | 141 | 0.0 | 7.0 | 0.00 | 0.00 | 0.00 | 52 | 1015.3 |
| 20260505173506 | 79 | 1 | 3.0 | 7.0 | 0.00 | 0.00 | 0.00 | 54 | 1015.4 |
| 20260505173401 | 78 | 245 | 2.0 | 7.0 | 0.00 | 0.00 | 0.00 | 54 | 1015.3 |
| 20260505173301 | 78 | 354 | 3.0 | 7.0 | 0.00 | 0.00 | 0.00 | 53 | 1015.4 |
| 20260505173201 | 78 | 246 | 1.0 | 7.0 | 0.00 | 0.00 | 0.00 | 52 | 1015.4 |
| 20260505173102 | 78 | 158 | 2.0 | 7.0 | 0.00 | 0.00 | 0.00 | 52 | 1015.4 |
| 20260505172901 | 78 | 10 | 0.0 | 7.0 | 0.00 | 0.00 | 0.00 | 51 | 1015.5 |
| 20260505172802 | 79 | 309 | 5.0 | 7.0 | 0.00 | 0.00 | 0.00 | 53 | 1015.4 |
| 20260505172701 | 79 | 313 | 0.0 | 6.0 | 0.00 | 0.00 | 0.00 | 54 | 1015.5 |
| 20260505172602 | 79 | 233 | 0.0 | 6.0 | 0.00 | 0.00 | 0.00 | 51 | 1015.5 |
| 20260505172402 | 79 | 130 | 2.0 | 6.0 | 0.00 | 0.00 | 0.00 | 52 | 1015.6 |
| 20260505172301 | 79 | 191 | 2.0 | 6.0 | 0.00 | 0.00 | 0.00 | 52 | 1015.7 |
| 20260505172201 | 79 | 326 | 0.0 | 6.0 | 0.00 | 0.00 | 0.00 | 51 | 1015.6 |
| 20260505172102 | 79 | 221 | 0.0 | 6.0 | 0.00 | 0.00 | 0.00 | 51 | 1015.5 |
| 20260505172006 | 78 | 125 | 2.0 | 6.0 | 0.00 | 0.00 | 0.00 | 52 | 1015.5 |
| 20260505171902 | 78 | 149 | 4.0 | 6.0 | 0.00 | 0.00 | 0.00 | 52 | 1015.5 |
| 20260505171802 | 78 | 307 | 0.0 | 6.0 | 0.00 | 0.00 | 0.00 | 53 | 1015.4 |
| 20260505171602 | 77 | 347 | 0.0 | 5.0 | 0.00 | 0.00 | 0.00 | 56 | 1015.4 |
| 20260505171506 | 77 | 326 | 1.0 | 6.0 | 0.00 | 0.00 | 0.00 | 56 | 1015.4 |
| 20260505171401 | 77 | 306 | 1.0 | 6.0 | 0.00 | 0.00 | 0.00 | 54 | 1015.4 |
| 20260505171301 | 77 | 324 | 1.0 | 6.0 | 0.00 | 0.00 | 0.00 | 54 | 1015.3 |
| 20260505171202 | 77 | 313 | 3.0 | 6.0 | 0.00 | 0.00 | 0.00 | 53 | 1015.3 |
| 20260505171006 | 77 | 305 | 3.0 | 6.0 | 0.00 | 0.00 | 0.00 | 55 | 1015.4 |
| 20260505170900 | 77 | 333 | 4.0 | 6.0 | 0.00 | 0.00 | 0.00 | 54 | 1015.3 |
| 20260505170801 | 77 | 305 | 3.0 | 6.0 | 0.00 | 0.00 | 0.00 | 54 | 1015.4 |
| 20260505170601 | 77 | 295 | 3.0 | 6.0 | 0.00 | 0.00 | 0.00 | 55 | 1015.4 |
| 20260505170505 | 77 | 334 | 2.0 | 6.0 | 0.00 | 0.00 | 0.00 | 55 | 1015.4 |
| 20260505170402 | 77 | 312 | 4.0 | 6.0 | 0.00 | 0.00 | 0.00 | 54 | 1015.4 |
| 20260505170201 | 78 | 326 | 3.0 | 6.0 | 0.00 | 0.00 | 0.00 | 53 | 1015.5 |
| 20260505170007 | 78 | 316 | 3.0 | 6.0 | 0.00 | 0.00 | 0.00 | 53 | 1015.5 |
| 20260505165700 | 78 | 290 | 3.0 | 6.0 | 0.00 | 0.00 | 0.00 | 55 | 1015.6 |
| 20260505165601 | 78 | 282 | 4.0 | 6.0 | 0.00 | 0.00 | 0.00 | 55 | 1015.6 |
| 20260505165300 | 76 | 310 | 3.0 | 5.0 | 0.00 | 0.00 | 0.00 | 54 | 1015.6 |
| 20260505165201 | 76 | 320 | 2.0 | 5.0 | 0.00 | 0.00 | 0.00 | 54 | 1015.6 |
| 20260505165101 | 77 | 293 | 4.0 | 5.0 | 0.00 | 0.00 | 0.00 | 55 | 1015.7 |
| 20260505165005 | 77 | 319 | 2.0 | 5.0 | 0.00 | 0.00 | 0.00 | 54 | 1015.7 |
| 20260505164803 | 77 | 357 | 2.0 | 4.0 | 0.00 | 0.00 | 0.00 | 54 | 1015.7 |
| 20260505164700 | 77 | 315 | 3.0 | 4.0 | 0.00 | 0.00 | 0.00 | 56 | 1015.6 |
| 20260505164504 | 76 | 352 | 1.0 | 5.0 | 0.00 | 0.00 | 0.00 | 55 | 1015.6 |
| 20260505164300 | 76 | 315 | 2.0 | 5.0 | 0.00 | 0.00 | 0.00 | 55 | 1015.6 |
| 20260505164201 | 76 | 319 | 2.0 | 5.0 | 0.00 | 0.00 | 0.00 | 55 | 1015.6 |
| 20260505164101 | 76 | 315 | 2.0 | 5.0 | 0.00 | 0.00 | 0.00 | 53 | 1015.7 |
| 20260505164006 | 76 | 322 | 3.0 | 5.0 | 0.00 | 0.00 | 0.00 | 54 | 1015.7 |
| 20260505163901 | 77 | 314 | 1.0 | 5.0 | 0.00 | 0.00 | 0.00 | 54 | 1015.8 |
| 20260505163801 | 77 | 226 | 2.0 | 5.0 | 0.00 | 0.00 | 0.00 | 54 | 1015.8 |
| 20260505163701 | 77 | 261 | 2.0 | 5.0 | 0.00 | 0.00 | 0.00 | 52 | 1015.6 |
| 20260505163600 | 77 | 51 | 0.0 | 5.0 | 0.00 | 0.00 | 0.00 | 52 | 1015.7 |
| 20260505163505 | 77 | 140 | 0.0 | 5.0 | 0.00 | 0.00 | 0.00 | 52 | 1015.7 |
| 20260505163401 | 77 | 146 | 2.0 | 5.0 | 0.00 | 0.00 | 0.00 | 54 | 1015.7 |
| 20260505163300 | 78 | 223 | 1.0 | 5.0 | 0.00 | 0.00 | 0.00 | 53 | 1015.8 |
| 20260505163159 | 78 | 232 | 2.0 | 5.0 | 0.00 | 0.00 | 0.00 | 52 | 1015.7 |
| 20260505163101 | 78 | 124 | 4.0 | 5.0 | 0.00 | 0.00 | 0.00 | 53 | 1015.8 |
| 20260505163009 | 78 | 322 | 3.0 | 4.0 | 0.00 | 0.00 | 0.00 | 53 | 1015.8 |
| 20260505162901 | 78 | 315 | 3.0 | 4.0 | 0.00 | 0.00 | 0.00 | 54 | 1015.8 |
| 20260505162700 | 77 | 331 | 2.0 | 4.0 | 0.00 | 0.00 | 0.00 | 55 | 1015.8 |
| 20260505162600 | 76 | 314 | 0.0 | 4.0 | 0.00 | 0.00 | 0.00 | 55 | 1015.8 |
| 20260505162505 | 76 | 307 | 2.0 | 4.0 | 0.00 | 0.00 | 0.00 | 54 | 1015.8 |
| 20260505162301 | 76 | 282 | 0.0 | 4.0 | 0.00 | 0.00 | 0.00 | 54 | 1015.8 |
| 20260505162201 | 76 | 298 | 2.0 | 4.0 | 0.00 | 0.00 | 0.00 | 55 | 1015.8 |
| 20260505162006 | 76 | 306 | 2.0 | 4.0 | 0.00 | 0.00 | 0.00 | 55 | 1015.9 |
| 20260505161900 | 76 | 294 | 0.0 | 4.0 | 0.00 | 0.00 | 0.00 | 53 | 1015.9 |
| 20260505161800 | 76 | 155 | 0.0 | 4.0 | 0.00 | 0.00 | 0.00 | 53 | 1015.9 |
| 20260505161700 | 76 | 298 | 1.0 | 4.0 | 0.00 | 0.00 | 0.00 | 54 | 1015.9 |
| 20260505161600 | 76 | 301 | 2.0 | 5.0 | 0.00 | 0.00 | 0.00 | 54 | 1015.9 |
| 20260505161505 | 76 | 10 | 3.0 | 5.0 | 0.00 | 0.00 | 0.00 | 55 | 1015.9 |
| 20260505161401 | 76 | 355 | 4.0 | 5.0 | 0.00 | 0.00 | 0.00 | 55 | 1015.9 |
| 20260505161300 | 75 | 153 | 1.0 | 5.0 | 0.00 | 0.00 | 0.00 | 55 | 1015.9 |
| 20260505161200 | 75 | 11 | 1.0 | 5.0 | 0.00 | 0.00 | 0.00 | 55 | 1015.9 |
| 20260505161101 | 75 | 176 | 3.0 | 6.0 | 0.00 | 0.00 | 0.00 | 57 | 1015.9 |
| 20260505160901 | 74 | 290 | 1.0 | 6.0 | 0.00 | 0.00 | 0.00 | 55 | 1015.8 |
| 20260505160600 | 75 | 335 | 2.0 | 6.0 | 0.00 | 0.00 | 0.00 | 54 | 1015.9 |
| 20260505160505 | 75 | 306 | 2.0 | 6.0 | 0.00 | 0.00 | 0.00 | 53 | 1015.9 |
| 20260505160401 | 75 | 254 | 4.0 | 6.0 | 0.00 | 0.00 | 0.00 | 54 | 1015.9 |
| 20260505160301 | 76 | 129 | 2.0 | 6.0 | 0.00 | 0.00 | 0.00 | 53 | 1016.0 |
| 20260505160200 | 76 | 55 | 1.0 | 5.0 | 0.00 | 0.00 | 0.00 | 53 | 1016.0 |
| 20260505153301 | 72 | 301 | 0.0 | 5.0 | 0.00 | 0.00 | 0.00 | 55 | 1016.3 |
| 20260505153201 | 72 | 301 | 0.0 | 5.0 | 0.00 | 0.00 | 0.00 | 55 | 1016.3 |
| 20260505153101 | 72 | 301 | 0.0 | 5.0 | 0.00 | 0.00 | 0.00 | 55 | 1016.3 |
| 20260505153004 | 72 | 301 | 0.0 | 5.0 | 0.00 | 0.00 | 0.00 | 55 | 1016.3 |
| 20260505152702 | 72 | 301 | 0.0 | 5.0 | 0.00 | 0.00 | 0.00 | 55 | 1016.3 |
| 20260505152503 | 72 | 301 | 0.0 | 5.0 | 0.00 | 0.00 | 0.00 | 55 | 1016.3 |
| 20260505152401 | 72 | 301 | 0.0 | 5.0 | 0.00 | 0.00 | 0.00 | 55 | 1016.3 |
| 20260505152304 | 72 | 301 | 0.0 | 5.0 | 0.00 | 0.00 | 0.00 | 55 | 1016.3 |
| 20260505152004 | 72 | 301 | 0.0 | 5.0 | 0.00 | 0.00 | 0.00 | 55 | 1016.3 |
| 20260505151901 | 72 | 301 | 0.0 | 5.0 | 0.00 | 0.00 | 0.00 | 55 | 1016.3 |
| 20260505151801 | 72 | 301 | 0.0 | 5.0 | 0.00 | 0.00 | 0.00 | 55 | 1016.3 |
| 20260505151700 | 72 | 301 | 0.0 | 5.0 | 0.00 | 0.00 | 0.00 | 55 | 1016.3 |
| 20260505151601 | 72 | 301 | 0.0 | 5.0 | 0.00 | 0.00 | 0.00 | 55 | 1016.3 |
| 20260505151503 | 72 | 301 | 0.0 | 5.0 | 0.00 | 0.00 | 0.00 | 55 | 1016.3 |
| 20260505151401 | 72 | 301 | 0.0 | 5.0 | 0.00 | 0.00 | 0.00 | 55 | 1016.3 |
| 20260505151301 | 72 | 301 | 0.0 | 5.0 | 0.00 | 0.00 | 0.00 | 55 | 1016.3 |
| 20260505151102 | 72 | 301 | 0.0 | 5.0 | 0.00 | 0.00 | 0.00 | 55 | 1016.3 |
| 20260505151004 | 72 | 301 | 0.0 | 5.0 | 0.00 | 0.00 | 0.00 | 55 | 1016.3 |
| 20260505150902 | 72 | 301 | 0.0 | 5.0 | 0.00 | 0.00 | 0.00 | 55 | 1016.3 |
| 20260505150701 | 72 | 301 | 0.0 | 5.0 | 0.00 | 0.00 | 0.00 | 55 | 1016.3 |
| 20260505150601 | 72 | 301 | 0.0 | 5.0 | 0.00 | 0.00 | 0.00 | 55 | 1016.3 |
| 20260505150503 | 72 | 301 | 0.0 | 5.0 | 0.00 | 0.00 | 0.00 | 55 | 1016.3 |
| 20260505150401 | 72 | 301 | 0.0 | 5.0 | 0.00 | 0.00 | 0.00 | 55 | 1016.3 |
| 20260505150301 | 72 | 301 | 0.0 | 5.0 | 0.00 | 0.00 | 0.00 | 55 | 1016.3 |
| 20260505150201 | 72 | 301 | 0.0 | 5.0 | 0.00 | 0.00 | 0.00 | 55 | 1016.3 |
| 20260505140601 | 69 | 216 | 0.0 | 4.0 | 0.00 | 0.00 | 0.00 | 58 | 1016.3 |
| 20260505140503 | 69 | 330 | 0.0 | 4.0 | 0.00 | 0.00 | 0.00 | 58 | 1016.3 |
| 20260505140401 | 69 | 105 | 1.0 | 4.0 | 0.00 | 0.00 | 0.00 | 58 | 1016.2 |
| 20260505140302 | 69 | 165 | 3.0 | 4.0 | 0.00 | 0.00 | 0.00 | 59 | 1016.2 |
| 20260505140202 | 69 | 269 | 2.0 | 3.0 | 0.00 | 0.00 | 0.00 | 59 | 1016.2 |
| 20260505130201 | 63 | 179 | 0.0 | 4.0 | 0.00 | 0.00 | 0.00 | 69 | 1015.9 |
| 20260505124901 | 62 | 204 | 3.0 | 4.0 | 0.00 | 0.00 | 0.00 | 72 | 1015.9 |
| 20260505124702 | 61 | 178 | 3.0 | 4.0 | 0.00 | 0.00 | 0.00 | 72 | 1015.9 |
| 20260505124602 | 61 | 162 | 4.0 | 4.0 | 0.00 | 0.00 | 0.00 | 73 | 1015.9 |
| 20260505124401 | 61 | 167 | 3.0 | 4.0 | 0.00 | 0.00 | 0.00 | 74 | 1015.8 |
| 20260505124302 | 61 | 174 | 1.0 | 4.0 | 0.00 | 0.00 | 0.00 | 74 | 1015.9 |
| 20260505124201 | 60 | 203 | 3.0 | 4.0 | 0.00 | 0.00 | 0.00 | 74 | 1015.9 |
| 20260505124006 | 60 | 179 | 3.0 | 5.0 | 0.00 | 0.00 | 0.00 | 74 | 1015.9 |
| 20260505123901 | 60 | 178 | 2.0 | 5.0 | 0.00 | 0.00 | 0.00 | 74 | 1015.9 |
| 20260505123801 | 60 | 200 | 3.0 | 5.0 | 0.00 | 0.00 | 0.00 | 74 | 1015.9 |
| 20260505123602 | 60 | 213 | 2.0 | 5.0 | 0.00 | 0.00 | 0.00 | 75 | 1015.9 |
| 20260505123505 | 60 | 195 | 2.0 | 5.0 | 0.00 | 0.00 | 0.00 | 75 | 1015.9 |
| 20260505123402 | 60 | 181 | 2.0 | 5.0 | 0.00 | 0.00 | 0.00 | 75 | 1015.9 |
| 20260505123303 | 59 | 207 | 3.0 | 5.0 | 0.00 | 0.00 | 0.00 | 75 | 1015.9 |
| 20260505123102 | 59 | 179 | 3.0 | 5.0 | 0.00 | 0.00 | 0.00 | 75 | 1015.9 |
| 20260505123006 | 59 | 169 | 4.0 | 5.0 | 0.00 | 0.00 | 0.00 | 75 | 1015.9 |
| 20260505122902 | 59 | 181 | 4.0 | 5.0 | 0.00 | 0.00 | 0.00 | 75 | 1015.9 |
| 20260505122801 | 59 | 174 | 4.0 | 4.0 | 0.00 | 0.00 | 0.00 | 75 | 1015.8 |
| 20260505122701 | 59 | 195 | 3.0 | 5.0 | 0.00 | 0.00 | 0.00 | 76 | 1015.8 |
| 20260505122601 | 59 | 183 | 4.0 | 5.0 | 0.00 | 0.00 | 0.00 | 77 | 1015.8 |
| 20260505122505 | 59 | 227 | 2.0 | 5.0 | 0.00 | 0.00 | 0.00 | 77 | 1015.8 |
| 20260505122302 | 58 | 181 | 3.0 | 5.0 | 0.00 | 0.00 | 0.00 | 77 | 1015.8 |
| 20260505122201 | 58 | 164 | 2.0 | 5.0 | 0.00 | 0.00 | 0.00 | 78 | 1015.8 |
| 20260505122101 | 58 | 184 | 3.0 | 5.0 | 0.00 | 0.00 | 0.00 | 78 | 1015.7 |
| 20260505121801 | 57 | 172 | 5.0 | 5.0 | 0.00 | 0.00 | 0.00 | 79 | 1015.7 |
| 20260505121701 | 57 | 187 | 4.0 | 4.0 | 0.00 | 0.00 | 0.00 | 79 | 1015.7 |
| 20260505121601 | 57 | 178 | 4.0 | 4.0 | 0.00 | 0.00 | 0.00 | 79 | 1015.7 |
| 20260505121506 | 57 | 205 | 3.0 | 4.0 | 0.00 | 0.00 | 0.00 | 79 | 1015.7 |
| 20260505121302 | 56 | 225 | 2.0 | 4.0 | 0.00 | 0.00 | 0.00 | 80 | 1015.7 |
| 20260505121201 | 56 | 198 | 2.0 | 4.0 | 0.00 | 0.00 | 0.00 | 80 | 1015.6 |
| 20260505121101 | 56 | 223 | 2.0 | 4.0 | 0.00 | 0.00 | 0.00 | 80 | 1015.7 |
| 20260505121006 | 56 | 224 | 2.0 | 4.0 | 0.00 | 0.00 | 0.00 | 80 | 1015.7 |
| 20260505120902 | 56 | 207 | 3.0 | 4.0 | 0.00 | 0.00 | 0.00 | 80 | 1015.7 |
| 20260505120701 | 56 | 204 | 3.0 | 4.0 | 0.00 | 0.00 | 0.00 | 80 | 1015.7 |
| 20260505120602 | 56 | 216 | 3.0 | 4.0 | 0.00 | 0.00 | 0.00 | 81 | 1015.7 |
| 20260505120505 | 56 | 211 | 2.0 | 4.0 | 0.00 | 0.00 | 0.00 | 81 | 1015.7 |
| 20260505120401 | 55 | 209 | 3.0 | 4.0 | 0.00 | 0.00 | 0.00 | 81 | 1015.7 |
| 20260505120301 | 55 | 216 | 3.0 | 3.0 | 0.00 | 0.00 | 0.00 | 81 | 1015.6 |
| 20260505120201 | 55 | 227 | 2.0 | 3.0 | 0.00 | 0.00 | 0.00 | 81 | 1015.7 |
| 20260505120007 | 55 | 234 | 3.0 | 4.0 | 0.00 | 0.00 | 0.00 | 81 | 1015.6 |
| 20260505115901 | 55 | 222 | 2.0 | 4.0 | 0.00 | 0.00 | 0.00 | 81 | 1015.7 |
| 20260505115801 | 55 | 223 | 3.0 | 4.0 | 0.00 | 0.00 | 0.00 | 81 | 1015.6 |
| 20260505115701 | 55 | 205 | 2.0 | 4.0 | 0.00 | 0.00 | 0.00 | 82 | 1015.6 |
| 20260505115601 | 54 | 214 | 3.0 | 4.0 | 0.00 | 0.00 | 0.00 | 82 | 1015.5 |
| 20260505115505 | 54 | 213 | 3.0 | 4.0 | 0.00 | 0.00 | 0.00 | 82 | 1015.5 |
| 20260505115400 | 54 | 209 | 2.0 | 4.0 | 0.00 | 0.00 | 0.00 | 82 | 1015.5 |
| 20260505115304 | 54 | 196 | 2.0 | 4.0 | 0.00 | 0.00 | 0.00 | 82 | 1015.4 |
| 20260505115201 | 54 | 200 | 2.0 | 4.0 | 0.00 | 0.00 | 0.00 | 82 | 1015.4 |
| 20260505115100 | 54 | 206 | 2.0 | 4.0 | 0.00 | 0.00 | 0.00 | 82 | 1015.4 |
| 20260505114800 | 54 | 229 | 2.0 | 3.0 | 0.00 | 0.00 | 0.00 | 83 | 1015.3 |
| 20260505114700 | 54 | 229 | 3.0 | 3.0 | 0.00 | 0.00 | 0.00 | 83 | 1015.3 |
| 20260505114601 | 54 | 227 | 3.0 | 3.0 | 0.00 | 0.00 | 0.00 | 82 | 1015.3 |
| 20260505114505 | 54 | 230 | 3.0 | 3.0 | 0.00 | 0.00 | 0.00 | 82 | 1015.3 |
| 20260505114401 | 54 | 222 | 2.0 | 3.0 | 0.00 | 0.00 | 0.00 | 82 | 1015.3 |
| 20260505114301 | 54 | 227 | 2.0 | 3.0 | 0.00 | 0.00 | 0.00 | 82 | 1015.3 |
| 20260505114200 | 54 | 227 | 1.0 | 3.0 | 0.00 | 0.00 | 0.00 | 82 | 1015.3 |
| 20260505114100 | 54 | 213 | 2.0 | 3.0 | 0.00 | 0.00 | 0.00 | 82 | 1015.4 |
| 20260505114005 | 53 | 206 | 2.0 | 3.0 | 0.00 | 0.00 | 0.00 | 82 | 1015.4 |
| 20260505113900 | 53 | 173 | 2.0 | 3.0 | 0.00 | 0.00 | 0.00 | 83 | 1015.2 |
| 20260505113659 | 53 | 246 | 1.0 | 3.0 | 0.00 | 0.00 | 0.00 | 83 | 1015.2 |
| 20260505113600 | 53 | 258 | 2.0 | 3.0 | 0.00 | 0.00 | 0.00 | 83 | 1015.2 |
| 20260505113505 | 53 | 232 | 3.0 | 3.0 | 0.00 | 0.00 | 0.00 | 83 | 1015.2 |
| 20260505113400 | 53 | 231 | 2.0 | 3.0 | 0.00 | 0.00 | 0.00 | 83 | 1015.4 |
| 20260505113301 | 53 | 230 | 2.0 | 3.0 | 0.00 | 0.00 | 0.00 | 83 | 1015.4 |
| 20260505113202 | 53 | 218 | 0.0 | 3.0 | 0.00 | 0.00 | 0.00 | 83 | 1015.4 |
| 20260505113101 | 53 | 218 | 0.0 | 3.0 | 0.00 | 0.00 | 0.00 | 83 | 1015.3 |
| 20260505113006 | 53 | 204 | 0.0 | 3.0 | 0.00 | 0.00 | 0.00 | 83 | 1015.3 |
| 20260505112902 | 53 | 224 | 1.0 | 3.0 | 0.00 | 0.00 | 0.00 | 84 | 1015.2 |
| 20260505112800 | 52 | 222 | 0.0 | 3.0 | 0.00 | 0.00 | 0.00 | 83 | 1015.2 |
| 20260505112659 | 52 | 218 | 0.0 | 3.0 | 0.00 | 0.00 | 0.00 | 83 | 1015.1 |
| 20260505112601 | 52 | 186 | 2.0 | 3.0 | 0.00 | 0.00 | 0.00 | 84 | 1015.2 |
| 20260505112505 | 52 | 195 | 1.0 | 3.0 | 0.00 | 0.00 | 0.00 | 84 | 1015.2 |
| 20260505112401 | 52 | 195 | 1.0 | 3.0 | 0.00 | 0.00 | 0.00 | 84 | 1015.0 |
| 20260505112301 | 52 | 209 | 0.0 | 3.0 | 0.00 | 0.00 | 0.00 | 84 | 1015.1 |
| 20260505112200 | 52 | 215 | 2.0 | 3.0 | 0.00 | 0.00 | 0.00 | 84 | 1015.2 |
| 20260505112101 | 52 | 209 | 0.0 | 3.0 | 0.00 | 0.00 | 0.00 | 84 | 1015.0 |
| 20260505112005 | 52 | 183 | 1.0 | 3.0 | 0.00 | 0.00 | 0.00 | 84 | 1015.0 |
| 20260505111859 | 52 | 221 | 0.0 | 3.0 | 0.00 | 0.00 | 0.00 | 84 | 1015.0 |
| 20260505111800 | 52 | 197 | 1.0 | 3.0 | 0.00 | 0.00 | 0.00 | 84 | 1014.9 |
| 20260505111600 | 52 | 213 | 1.0 | 3.0 | 0.00 | 0.00 | 0.00 | 84 | 1015.0 |
| 20260505111505 | 52 | 215 | 2.0 | 3.0 | 0.00 | 0.00 | 0.00 | 84 | 1015.0 |
| 20260505111400 | 52 | 211 | 2.0 | 3.0 | 0.00 | 0.00 | 0.00 | 84 | 1015.1 |
| 20260505111301 | 52 | 208 | 2.0 | 3.0 | 0.00 | 0.00 | 0.00 | 84 | 1015.1 |
| 20260505111200 | 52 | 179 | 0.0 | 2.0 | 0.00 | 0.00 | 0.00 | 84 | 1015.1 |
| 20260505111101 | 52 | 166 | 0.0 | 1.0 | 0.00 | 0.00 | 0.00 | 84 | 1015.2 |
| 20260505111005 | 52 | 238 | 0.0 | 1.0 | 0.00 | 0.00 | 0.00 | 84 | 1015.2 |
| 20260505110901 | 52 | 159 | 0.0 | 2.0 | 0.00 | 0.00 | 0.00 | 84 | 1015.2 |
| 20260505110800 | 52 | 155 | 1.0 | 2.0 | 0.00 | 0.00 | 0.00 | 84 | 1015.0 |
| 20260505110601 | 52 | 218 | 0.0 | 2.0 | 0.00 | 0.00 | 0.00 | 84 | 1015.1 |
| 20260505110505 | 52 | 218 | 0.0 | 2.0 | 0.00 | 0.00 | 0.00 | 84 | 1015.1 |
| 20260505110400 | 52 | 218 | 0.0 | 2.0 | 0.00 | 0.00 | 0.00 | 84 | 1015.2 |
| 20260505110301 | 52 | 218 | 0.0 | 2.0 | 0.00 | 0.00 | 0.00 | 84 | 1015.1 |
| 20260505102101 | 51 | 212 | 4.0 | 5.0 | 0.00 | 0.00 | 0.00 | 86 | 1014.8 |
| 20260505102013 | 51 | 166 | 3.0 | 5.0 | 0.00 | 0.00 | 0.00 | 86 | 1014.8 |
| 20260505101901 | 51 | 179 | 3.0 | 5.0 | 0.00 | 0.00 | 0.00 | 86 | 1014.8 |
| 20260505101801 | 51 | 159 | 0.0 | 4.0 | 0.00 | 0.00 | 0.00 | 86 | 1014.8 |
| 20260505101701 | 51 | 217 | 1.0 | 4.0 | 0.00 | 0.00 | 0.00 | 86 | 1015.0 |
| 20260505101600 | 51 | 154 | 0.0 | 4.0 | 0.00 | 0.00 | 0.00 | 86 | 1014.9 |
| 20260505101505 | 51 | 162 | 2.0 | 4.0 | 0.00 | 0.00 | 0.00 | 86 | 1014.9 |
| 20260505101401 | 51 | 176 | 3.0 | 4.0 | 0.00 | 0.00 | 0.00 | 86 | 1014.7 |
| 20260505101302 | 51 | 189 | 3.0 | 4.0 | 0.00 | 0.00 | 0.00 | 86 | 1014.7 |
| 20260505101201 | 51 | 181 | 2.0 | 4.0 | 0.00 | 0.00 | 0.00 | 86 | 1014.6 |
| 20260505101103 | 51 | 167 | 3.0 | 3.0 | 0.00 | 0.00 | 0.00 | 86 | 1014.7 |
| 20260505101006 | 51 | 208 | 0.0 | 3.0 | 0.00 | 0.00 | 0.00 | 86 | 1014.7 |
| 20260505100902 | 51 | 201 | 1.0 | 3.0 | 0.00 | 0.00 | 0.00 | 86 | 1014.7 |
| 20260505100801 | 51 | 221 | 0.0 | 3.0 | 0.00 | 0.00 | 0.00 | 86 | 1014.7 |
| 20260505100702 | 51 | 162 | 0.0 | 3.0 | 0.00 | 0.00 | 0.00 | 86 | 1014.6 |
| 20260505100505 | 51 | 181 | 2.0 | 3.0 | 0.00 | 0.00 | 0.00 | 86 | 1014.7 |
| 20260505100302 | 51 | 190 | 1.0 | 3.0 | 0.00 | 0.00 | 0.00 | 85 | 1014.5 |
| 20260505100201 | 51 | 205 | 0.0 | 3.0 | 0.00 | 0.00 | 0.00 | 85 | 1014.5 |
| 20260505100006 | 51 | 207 | 2.0 | 3.0 | 0.00 | 0.00 | 0.00 | 85 | 1014.5 |
| 20260505095900 | 51 | 173 | 0.0 | 3.0 | 0.00 | 0.00 | 0.00 | 85 | 1014.5 |
| 20260505095801 | 51 | 190 | 0.0 | 2.0 | 0.00 | 0.00 | 0.00 | 85 | 1014.4 |
| 20260505095700 | 51 | 203 | 1.0 | 2.0 | 0.00 | 0.00 | 0.00 | 85 | 1014.4 |
| 20260505095600 | 51 | 215 | 0.0 | 2.0 | 0.00 | 0.00 | 0.00 | 85 | 1014.4 |
| 20260505095505 | 51 | 210 | 0.0 | 2.0 | 0.00 | 0.00 | 0.00 | 85 | 1014.4 |
| 20260505095400 | 51 | 215 | 0.0 | 2.0 | 0.00 | 0.00 | 0.00 | 85 | 1014.3 |
| 20260505095300 | 51 | 201 | 0.0 | 2.0 | 0.00 | 0.00 | 0.00 | 85 | 1014.3 |
| 20260505095202 | 51 | 225 | 1.0 | 2.0 | 0.00 | 0.00 | 0.00 | 85 | 1014.3 |
| 20260505095101 | 51 | 209 | 0.0 | 2.0 | 0.00 | 0.00 | 0.00 | 85 | 1014.3 |
| 20260505095005 | 51 | 184 | 0.0 | 2.0 | 0.00 | 0.00 | 0.00 | 85 | 1014.3 |
| 20260505094900 | 51 | 205 | 1.0 | 2.0 | 0.00 | 0.00 | 0.00 | 85 | 1014.4 |
| 20260505094800 | 51 | 210 | 0.0 | 2.0 | 0.00 | 0.00 | 0.00 | 85 | 1014.3 |
| 20260505094700 | 51 | 212 | 1.0 | 2.0 | 0.00 | 0.00 | 0.00 | 85 | 1014.4 |
| 20260505094600 | 51 | 206 | 1.0 | 2.0 | 0.00 | 0.00 | 0.00 | 85 | 1014.4 |
| 20260505094505 | 51 | 213 | 0.0 | 2.0 | 0.00 | 0.00 | 0.00 | 85 | 1014.4 |
| 20260505094400 | 51 | 206 | 0.0 | 3.0 | 0.00 | 0.00 | 0.00 | 85 | 1014.3 |
| 20260505094200 | 51 | 205 | 0.0 | 3.0 | 0.00 | 0.00 | 0.00 | 85 | 1014.3 |
| 20260505094005 | 52 | 199 | 2.0 | 3.0 | 0.00 | 0.00 | 0.00 | 85 | 1014.3 |
| 20260505093801 | 52 | 210 | 0.0 | 3.0 | 0.00 | 0.00 | 0.00 | 85 | 1014.4 |
| 20260505093700 | 52 | 210 | 0.0 | 3.0 | 0.00 | 0.00 | 0.00 | 85 | 1014.3 |
| 20260505093601 | 52 | 206 | 1.0 | 3.0 | 0.00 | 0.00 | 0.00 | 85 | 1014.3 |
| 20260505093505 | 52 | 185 | 3.0 | 3.0 | 0.00 | 0.00 | 0.00 | 84 | 1014.3 |
| 20260505093400 | 52 | 174 | 1.0 | 3.0 | 0.00 | 0.00 | 0.00 | 84 | 1014.3 |
| 20260505093301 | 52 | 210 | 0.0 | 3.0 | 0.00 | 0.00 | 0.00 | 85 | 1014.3 |
| 20260505093007 | 52 | 234 | 0.0 | 3.0 | 0.00 | 0.00 | 0.00 | 85 | 1014.3 |
| 20260505092901 | 52 | 264 | 1.0 | 3.0 | 0.00 | 0.00 | 0.00 | 85 | 1014.3 |
| 20260505092800 | 52 | 233 | 0.0 | 3.0 | 0.00 | 0.00 | 0.00 | 85 | 1014.4 |
| 20260505092701 | 52 | 218 | 1.0 | 3.0 | 0.00 | 0.00 | 0.00 | 85 | 1014.3 |
| 20260505092600 | 52 | 250 | 2.0 | 2.0 | 0.00 | 0.00 | 0.00 | 84 | 1014.3 |
| 20260505092505 | 52 | 237 | 2.0 | 2.0 | 0.00 | 0.00 | 0.00 | 84 | 1014.3 |
| 20260505092401 | 52 | 250 | 2.0 | 2.0 | 0.00 | 0.00 | 0.00 | 84 | 1014.1 |
| 20260505092201 | 52 | 227 | 2.0 | 2.0 | 0.00 | 0.00 | 0.00 | 84 | 1014.1 |
| 20260505092101 | 52 | 220 | 0.0 | 2.0 | 0.00 | 0.00 | 0.00 | 84 | 1014.1 |
| 20260505092005 | 52 | 223 | 0.0 | 2.0 | 0.00 | 0.00 | 0.00 | 84 | 1014.1 |
| 20260505091901 | 52 | 230 | 0.0 | 2.0 | 0.00 | 0.00 | 0.00 | 84 | 1014.0 |
| 20260505091600 | 52 | 217 | 0.0 | 2.0 | 0.00 | 0.00 | 0.00 | 84 | 1014.0 |
| 20260505091505 | 52 | 209 | 0.0 | 2.0 | 0.00 | 0.00 | 0.00 | 84 | 1014.0 |
| 20260505091300 | 52 | 212 | 0.0 | 2.0 | 0.00 | 0.00 | 0.00 | 84 | 1013.9 |
| 20260505091200 | 52 | 215 | 0.0 | 2.0 | 0.00 | 0.00 | 0.00 | 84 | 1013.9 |
| 20260505091100 | 52 | 229 | 0.0 | 2.0 | 0.00 | 0.00 | 0.00 | 84 | 1013.9 |
| 20260505091005 | 52 | 229 | 0.0 | 3.0 | 0.00 | 0.00 | 0.00 | 84 | 1013.9 |
| 20260505090801 | 52 | 229 | 0.0 | 3.0 | 0.00 | 0.00 | 0.00 | 84 | 1013.8 |
| 20260505090701 | 52 | 234 | 0.0 | 3.0 | 0.00 | 0.00 | 0.00 | 84 | 1013.8 |
| 20260505090505 | 52 | 212 | 0.0 | 3.0 | 0.00 | 0.00 | 0.00 | 84 | 1013.9 |
| 20260505090359 | 52 | 212 | 0.0 | 3.0 | 0.00 | 0.00 | 0.00 | 84 | 1013.8 |
| 20260505090300 | 52 | 198 | 0.0 | 3.0 | 0.00 | 0.00 | 0.00 | 83 | 1013.8 |
| 20260505090200 | 52 | 178 | 1.0 | 3.0 | 0.00 | 0.00 | 0.00 | 83 | 1013.8 |
| 20260505090006 | 52 | 221 | 2.0 | 2.0 | 0.00 | 0.00 | 0.00 | 83 | 1013.8 |
| 20260505085900 | 52 | 229 | 1.0 | 2.0 | 0.00 | 0.00 | 0.00 | 83 | 1013.9 |
| 20260505085800 | 52 | 255 | 0.0 | 2.0 | 0.00 | 0.00 | 0.00 | 84 | 1013.9 |
| 20260505085700 | 52 | 260 | 0.0 | 2.0 | 0.00 | 0.00 | 0.00 | 84 | 1013.9 |
| 20260505085600 | 52 | 241 | 0.0 | 2.0 | 0.00 | 0.00 | 0.00 | 83 | 1013.9 |
| 20260505085505 | 52 | 243 | 1.0 | 2.0 | 0.00 | 0.00 | 0.00 | 83 | 1013.9 |
| 20260505085401 | 52 | 232 | 0.0 | 2.0 | 0.00 | 0.00 | 0.00 | 83 | 1013.8 |
| 20260505085300 | 52 | 232 | 0.0 | 2.0 | 0.00 | 0.00 | 0.00 | 83 | 1013.8 |
| 20260505085201 | 52 | 232 | 0.0 | 2.0 | 0.00 | 0.00 | 0.00 | 83 | 1013.8 |
| 20260505085101 | 52 | 230 | 0.0 | 2.0 | 0.00 | 0.00 | 0.00 | 83 | 1013.8 |
| 20260505085005 | 52 | 231 | 0.0 | 2.0 | 0.00 | 0.00 | 0.00 | 83 | 1013.8 |
| 20260505084901 | 52 | 216 | 0.0 | 2.0 | 0.00 | 0.00 | 0.00 | 83 | 1013.8 |
| 20260505084800 | 53 | 212 | 0.0 | 2.0 | 0.00 | 0.00 | 0.00 | 83 | 1013.7 |
| 20260505084701 | 53 | 227 | 1.0 | 2.0 | 0.00 | 0.00 | 0.00 | 83 | 1013.7 |
| 20260505084601 | 53 | 229 | 0.0 | 2.0 | 0.00 | 0.00 | 0.00 | 83 | 1013.7 |
| 20260505084401 | 53 | 228 | 0.0 | 2.0 | 0.00 | 0.00 | 0.00 | 83 | 1013.6 |
| 20260505084201 | 53 | 231 | 0.0 | 2.0 | 0.00 | 0.00 | 0.00 | 82 | 1013.7 |
| 20260505084101 | 53 | 219 | 0.0 | 2.0 | 0.00 | 0.00 | 0.00 | 82 | 1013.6 |
| 20260505084005 | 53 | 219 | 0.0 | 2.0 | 0.00 | 0.00 | 0.00 | 82 | 1013.7 |
| 20260505083901 | 53 | 232 | 1.0 | 2.0 | 0.00 | 0.00 | 0.00 | 82 | 1013.7 |
| 20260505083800 | 53 | 214 | 0.0 | 2.0 | 0.00 | 0.00 | 0.00 | 82 | 1013.7 |
| 20260505083700 | 53 | 228 | 1.0 | 3.0 | 0.00 | 0.00 | 0.00 | 82 | 1013.7 |
| 20260505083600 | 53 | 219 | 0.0 | 3.0 | 0.00 | 0.00 | 0.00 | 82 | 1013.6 |
| 20260505083401 | 53 | 209 | 0.0 | 3.0 | 0.00 | 0.00 | 0.00 | 82 | 1013.7 |
| 20260505083200 | 53 | 236 | 2.0 | 3.0 | 0.00 | 0.00 | 0.00 | 82 | 1013.7 |
| 20260505083101 | 53 | 241 | 2.0 | 3.0 | 0.00 | 0.00 | 0.00 | 81 | 1013.6 |
| 20260505083006 | 53 | 235 | 2.0 | 3.0 | 0.00 | 0.00 | 0.00 | 82 | 1013.6 |
| 20260505082901 | 53 | 228 | 0.0 | 3.0 | 0.00 | 0.00 | 0.00 | 81 | 1013.7 |
| 20260505082801 | 53 | 224 | 3.0 | 3.0 | 0.00 | 0.00 | 0.00 | 81 | 1013.6 |
| 20260505082700 | 53 | 218 | 1.0 | 3.0 | 0.00 | 0.00 | 0.00 | 81 | 1013.6 |
| 20260505082600 | 53 | 228 | 2.0 | 3.0 | 0.00 | 0.00 | 0.00 | 81 | 1013.6 |
| 20260505082505 | 53 | 219 | 3.0 | 3.0 | 0.00 | 0.00 | 0.00 | 81 | 1013.6 |
| 20260505082401 | 53 | 212 | 2.0 | 3.0 | 0.00 | 0.00 | 0.00 | 81 | 1013.6 |
| 20260505082304 | 53 | 222 | 2.0 | 3.0 | 0.00 | 0.00 | 0.00 | 81 | 1013.7 |
| 20260505082200 | 54 | 225 | 2.0 | 3.0 | 0.00 | 0.00 | 0.00 | 81 | 1013.7 |
| 20260505082101 | 54 | 218 | 3.0 | 3.0 | 0.00 | 0.00 | 0.00 | 81 | 1013.6 |
| 20260505082005 | 54 | 225 | 1.0 | 3.0 | 0.00 | 0.00 | 0.00 | 81 | 1013.6 |
| 20260505081901 | 54 | 228 | 2.0 | 3.0 | 0.00 | 0.00 | 0.00 | 81 | 1013.7 |
| 20260505081800 | 54 | 220 | 2.0 | 3.0 | 0.00 | 0.00 | 0.00 | 80 | 1013.6 |
| 20260505081700 | 54 | 220 | 2.0 | 3.0 | 0.00 | 0.00 | 0.00 | 80 | 1013.5 |
| 20260505081505 | 54 | 213 | 2.0 | 3.0 | 0.00 | 0.00 | 0.00 | 81 | 1013.5 |
| 20260505081401 | 54 | 232 | 2.0 | 3.0 | 0.00 | 0.00 | 0.00 | 81 | 1013.6 |
| 20260505081300 | 54 | 232 | 2.0 | 3.0 | 0.00 | 0.00 | 0.00 | 80 | 1013.6 |
| 20260505081201 | 54 | 238 | 2.0 | 3.0 | 0.00 | 0.00 | 0.00 | 80 | 1013.7 |
| 20260505081100 | 54 | 238 | 2.0 | 3.0 | 0.00 | 0.00 | 0.00 | 80 | 1013.7 |
| 20260505081003 | 54 | 227 | 2.0 | 3.0 | 0.00 | 0.00 | 0.00 | 80 | 1013.7 |
| 20260505080900 | 54 | 227 | 2.0 | 3.0 | 0.00 | 0.00 | 0.00 | 80 | 1013.7 |
| 20260505080801 | 54 | 238 | 2.0 | 3.0 | 0.00 | 0.00 | 0.00 | 80 | 1013.7 |
| 20260505080559 | 54 | 239 | 2.0 | 3.0 | 0.00 | 0.00 | 0.00 | 80 | 1013.6 |
| 20260505080504 | 54 | 228 | 2.0 | 3.0 | 0.00 | 0.00 | 0.00 | 80 | 1013.6 |
| 20260505080400 | 54 | 227 | 3.0 | 3.0 | 0.00 | 0.00 | 0.00 | 80 | 1013.5 |
| 20260505080300 | 54 | 229 | 2.0 | 3.0 | 0.00 | 0.00 | 0.00 | 80 | 1013.5 |
| 20260505080200 | 54 | 237 | 1.0 | 3.0 | 0.00 | 0.00 | 0.00 | 80 | 1013.5 |
| 20260505080100 | 54 | 228 | 1.0 | 3.0 | 0.00 | 0.00 | 0.00 | 80 | 1013.6 |
| 20260505080005 | 54 | 226 | 0.0 | 3.0 | 0.00 | 0.00 | 0.00 | 79 | 1013.6 |
| 20260505075900 | 54 | 231 | 2.0 | 3.0 | 0.00 | 0.00 | 0.00 | 79 | 1013.6 |
| 20260505075800 | 54 | 232 | 2.0 | 3.0 | 0.00 | 0.00 | 0.00 | 79 | 1013.6 |
| 20260505075600 | 55 | 235 | 3.0 | 3.0 | 0.00 | 0.00 | 0.00 | 79 | 1013.5 |
| 20260505075505 | 55 | 252 | 2.0 | 3.0 | 0.00 | 0.00 | 0.00 | 79 | 1013.5 |
| 20260505075304 | 55 | 233 | 2.0 | 3.0 | 0.00 | 0.00 | 0.00 | 79 | 1013.4 |
| 20260505075200 | 55 | 237 | 2.0 | 3.0 | 0.00 | 0.00 | 0.00 | 79 | 1013.4 |
| 20260505075100 | 55 | 224 | 0.0 | 3.0 | 0.00 | 0.00 | 0.00 | 79 | 1013.3 |
| 20260505075006 | 55 | 220 | 2.0 | 3.0 | 0.00 | 0.00 | 0.00 | 79 | 1013.3 |
| 20260505074900 | 55 | 227 | 2.0 | 3.0 | 0.00 | 0.00 | 0.00 | 79 | 1013.4 |
| 20260505074700 | 55 | 243 | 0.0 | 3.0 | 0.00 | 0.00 | 0.00 | 78 | 1013.4 |
| 20260505074600 | 55 | 241 | 0.0 | 3.0 | 0.00 | 0.00 | 0.00 | 78 | 1013.4 |
| 20260505074505 | 55 | 233 | 2.0 | 3.0 | 0.00 | 0.00 | 0.00 | 78 | 1013.4 |
| 20260505074400 | 55 | 231 | 2.0 | 3.0 | 0.00 | 0.00 | 0.00 | 78 | 1013.4 |
| 20260505074300 | 55 | 224 | 3.0 | 3.0 | 0.00 | 0.00 | 0.00 | 78 | 1013.3 |
| 20260505074200 | 55 | 210 | 2.0 | 3.0 | 0.00 | 0.00 | 0.00 | 78 | 1013.4 |
| 20260505074005 | 55 | 223 | 2.0 | 3.0 | 0.00 | 0.00 | 0.00 | 78 | 1013.3 |
| 20260505073900 | 55 | 213 | 2.0 | 3.0 | 0.00 | 0.00 | 0.00 | 78 | 1013.5 |
| 20260505073759 | 55 | 224 | 2.0 | 3.0 | 0.00 | 0.00 | 0.00 | 78 | 1013.5 |
| 20260505073700 | 55 | 223 | 2.0 | 3.0 | 0.00 | 0.00 | 0.00 | 78 | 1013.5 |
| 20260505073600 | 56 | 233 | 1.0 | 3.0 | 0.00 | 0.00 | 0.00 | 78 | 1013.6 |
| 20260505073505 | 56 | 235 | 2.0 | 3.0 | 0.00 | 0.00 | 0.00 | 78 | 1013.6 |
| 20260505073401 | 56 | 223 | 1.0 | 3.0 | 0.00 | 0.00 | 0.00 | 78 | 1013.5 |
| 20260505073200 | 56 | 220 | 2.0 | 3.0 | 0.00 | 0.00 | 0.00 | 78 | 1013.6 |
| 20260505073100 | 55 | 226 | 2.0 | 3.0 | 0.00 | 0.00 | 0.00 | 78 | 1013.5 |
| 20260505073005 | 56 | 229 | 2.0 | 3.0 | 0.00 | 0.00 | 0.00 | 78 | 1013.5 |
| 20260505072900 | 55 | 223 | 2.0 | 3.0 | 0.00 | 0.00 | 0.00 | 78 | 1013.7 |
| 20260505072800 | 55 | 228 | 2.0 | 3.0 | 0.00 | 0.00 | 0.00 | 78 | 1013.7 |
| 20260505072700 | 56 | 257 | 2.0 | 3.0 | 0.00 | 0.00 | 0.00 | 78 | 1013.7 |
| 20260505072600 | 56 | 264 | 2.0 | 3.0 | 0.00 | 0.00 | 0.00 | 78 | 1013.8 |
| 20260505072400 | 56 | 259 | 2.0 | 3.0 | 0.00 | 0.00 | 0.00 | 78 | 1013.7 |
| 20260505072301 | 56 | 276 | 3.0 | 3.0 | 0.00 | 0.00 | 0.00 | 78 | 1013.7 |
| 20260505072201 | 56 | 255 | 3.0 | 3.0 | 0.00 | 0.00 | 0.00 | 78 | 1013.6 |
| 20260505072005 | 56 | 231 | 2.0 | 3.0 | 0.00 | 0.00 | 0.00 | 78 | 1013.6 |
| 20260505071701 | 56 | 250 | 2.0 | 3.0 | 0.00 | 0.00 | 0.00 | 77 | 1013.6 |
| 20260505071504 | 55 | 243 | 2.0 | 3.0 | 0.00 | 0.00 | 0.00 | 78 | 1013.6 |
| 20260505071301 | 55 | 250 | 0.0 | 3.0 | 0.00 | 0.00 | 0.00 | 78 | 1013.7 |
| 20260505071100 | 55 | 251 | 3.0 | 3.0 | 0.00 | 0.00 | 0.00 | 77 | 1013.7 |
| 20260505071006 | 55 | 240 | 2.0 | 3.0 | 0.00 | 0.00 | 0.00 | 77 | 1013.7 |
| 20260505070800 | 56 | 257 | 2.0 | 3.0 | 0.00 | 0.00 | 0.00 | 77 | 1013.8 |
| 20260505070700 | 56 | 252 | 2.0 | 3.0 | 0.00 | 0.00 | 0.00 | 77 | 1013.7 |
| 20260505070600 | 56 | 253 | 2.0 | 3.0 | 0.00 | 0.00 | 0.00 | 77 | 1013.8 |
| 20260505070400 | 56 | 269 | 1.0 | 3.0 | 0.00 | 0.00 | 0.00 | 77 | 1013.7 |
| 20260505070300 | 56 | 253 | 1.0 | 3.0 | 0.00 | 0.00 | 0.00 | 77 | 1013.8 |
| 20260505070101 | 56 | 258 | 0.0 | 3.0 | 0.00 | 0.00 | 0.00 | 77 | 1013.9 |
| 20260505070007 | 56 | 255 | 3.0 | 3.0 | 0.00 | 0.00 | 0.00 | 77 | 1013.9 |
| 20260505065901 | 56 | 263 | 2.0 | 3.0 | 0.00 | 0.00 | 0.00 | 77 | 1013.9 |
| 20260505065800 | 56 | 255 | 2.0 | 3.0 | 0.00 | 0.00 | 0.00 | 77 | 1013.9 |
| 20260505065701 | 56 | 240 | 2.0 | 3.0 | 0.00 | 0.00 | 0.00 | 77 | 1013.9 |
| 20260505065600 | 56 | 250 | 3.0 | 3.0 | 0.00 | 0.00 | 0.00 | 77 | 1013.8 |
| 20260505065504 | 56 | 246 | 2.0 | 3.0 | 0.00 | 0.00 | 0.00 | 77 | 1013.9 |
| 20260505065401 | 56 | 255 | 2.0 | 3.0 | 0.00 | 0.00 | 0.00 | 77 | 1013.9 |
| 20260505065101 | 56 | 251 | 2.0 | 3.0 | 0.00 | 0.00 | 0.00 | 77 | 1013.9 |
| 20260505064900 | 56 | 258 | 2.0 | 3.0 | 0.00 | 0.00 | 0.00 | 77 | 1014.0 |
| 20260505064800 | 56 | 239 | 2.0 | 3.0 | 0.00 | 0.00 | 0.00 | 77 | 1014.0 |
| 20260505064700 | 56 | 235 | 2.0 | 3.0 | 0.00 | 0.00 | 0.00 | 77 | 1014.0 |
| 20260505064600 | 56 | 228 | 2.0 | 3.0 | 0.00 | 0.00 | 0.00 | 77 | 1014.0 |
| 20260505064504 | 56 | 248 | 2.0 | 3.0 | 0.00 | 0.00 | 0.00 | 77 | 1014.0 |
| 20260505064400 | 56 | 225 | 2.0 | 3.0 | 0.00 | 0.00 | 0.00 | 77 | 1014.1 |
| 20260505064300 | 56 | 244 | 3.0 | 3.0 | 0.00 | 0.00 | 0.00 | 76 | 1014.0 |
| 20260505064200 | 56 | 239 | 1.0 | 3.0 | 0.00 | 0.00 | 0.00 | 76 | 1014.0 |
| 20260505064006 | 56 | 246 | 2.0 | 3.0 | 0.00 | 0.00 | 0.00 | 77 | 1014.1 |
| 20260505063901 | 56 | 227 | 2.0 | 3.0 | 0.00 | 0.00 | 0.00 | 76 | 1014.2 |
| 20260505063801 | 56 | 221 | 2.0 | 3.0 | 0.00 | 0.00 | 0.00 | 76 | 1014.2 |
| 20260505063700 | 56 | 217 | 2.0 | 3.0 | 0.00 | 0.00 | 0.00 | 77 | 1014.2 |
| 20260505063600 | 56 | 203 | 3.0 | 3.0 | 0.00 | 0.00 | 0.00 | 77 | 1014.2 |
| 20260505063505 | 56 | 212 | 2.0 | 3.0 | 0.00 | 0.00 | 0.00 | 77 | 1014.2 |
| 20260505063400 | 56 | 218 | 3.0 | 3.0 | 0.00 | 0.00 | 0.00 | 77 | 1014.3 |
| 20260505063200 | 56 | 259 | 3.0 | 3.0 | 0.00 | 0.00 | 0.00 | 76 | 1014.4 |
| 20260505063100 | 56 | 248 | 3.0 | 3.0 | 0.00 | 0.00 | 0.00 | 76 | 1014.4 |
| 20260505063005 | 56 | 234 | 2.0 | 3.0 | 0.00 | 0.00 | 0.00 | 76 | 1014.4 |
| 20260505062900 | 56 | 253 | 2.0 | 3.0 | 0.00 | 0.00 | 0.00 | 76 | 1014.3 |
| 20260505062800 | 56 | 257 | 2.0 | 3.0 | 0.00 | 0.00 | 0.00 | 76 | 1014.3 |
| 20260505062700 | 56 | 237 | 2.0 | 3.0 | 0.00 | 0.00 | 0.00 | 76 | 1014.3 |
| 20260505062600 | 56 | 259 | 2.0 | 3.0 | 0.00 | 0.00 | 0.00 | 76 | 1014.3 |
| 20260505062505 | 56 | 242 | 2.0 | 3.0 | 0.00 | 0.00 | 0.00 | 76 | 1014.3 |
| 20260505062400 | 56 | 248 | 3.0 | 3.0 | 0.00 | 0.00 | 0.00 | 76 | 1014.3 |
| 20260505062300 | 56 | 251 | 2.0 | 3.0 | 0.00 | 0.00 | 0.00 | 76 | 1014.2 |
| 20260505062200 | 56 | 244 | 3.0 | 3.0 | 0.00 | 0.00 | 0.00 | 75 | 1014.2 |
| 20260505062102 | 56 | 238 | 2.0 | 3.0 | 0.00 | 0.00 | 0.00 | 75 | 1014.3 |
| 20260505062007 | 56 | 248 | 2.0 | 3.0 | 0.00 | 0.00 | 0.00 | 75 | 1014.3 |
| 20260505061900 | 56 | 239 | 3.0 | 3.0 | 0.00 | 0.00 | 0.00 | 75 | 1014.3 |
| 20260505061800 | 56 | 248 | 3.0 | 3.0 | 0.00 | 0.00 | 0.00 | 75 | 1014.2 |
| 20260505061701 | 56 | 236 | 3.0 | 3.0 | 0.00 | 0.00 | 0.00 | 75 | 1014.2 |
| 20260505061600 | 56 | 229 | 3.0 | 3.0 | 0.00 | 0.00 | 0.00 | 75 | 1014.2 |
| 20260505061505 | 56 | 236 | 3.0 | 3.0 | 0.00 | 0.00 | 0.00 | 75 | 1014.2 |
| 20260505061400 | 56 | 232 | 2.0 | 3.0 | 0.00 | 0.00 | 0.00 | 74 | 1014.3 |
| 20260505061201 | 56 | 228 | 2.0 | 3.0 | 0.00 | 0.00 | 0.00 | 74 | 1014.2 |
| 20260505061101 | 56 | 227 | 2.0 | 3.0 | 0.00 | 0.00 | 0.00 | 74 | 1014.3 |
| 20260505060900 | 57 | 226 | 2.0 | 3.0 | 0.00 | 0.00 | 0.00 | 74 | 1014.2 |
| 20260505060800 | 56 | 233 | 2.0 | 3.0 | 0.00 | 0.00 | 0.00 | 74 | 1014.3 |
| 20260505060659 | 56 | 224 | 2.0 | 3.0 | 0.00 | 0.00 | 0.00 | 74 | 1014.3 |
| 20260505060601 | 56 | 229 | 3.0 | 3.0 | 0.00 | 0.00 | 0.00 | 74 | 1014.3 |
| 20260505060400 | 56 | 238 | 3.0 | 3.0 | 0.00 | 0.00 | 0.00 | 74 | 1014.3 |
| 20260505060300 | 57 | 239 | 2.0 | 3.0 | 0.00 | 0.00 | 0.00 | 74 | 1014.3 |
| 20260505060101 | 57 | 236 | 2.0 | 3.0 | 0.00 | 0.00 | 0.00 | 74 | 1014.4 |
| 20260505060007 | 57 | 227 | 2.0 | 3.0 | 0.00 | 0.00 | 0.00 | 74 | 1014.4 |
| 20260505055903 | 57 | 229 | 2.0 | 3.0 | 0.00 | 0.00 | 0.00 | 74 | 1014.5 |
| 20260505055804 | 57 | 232 | 2.0 | 3.0 | 0.00 | 0.00 | 0.00 | 74 | 1014.5 |
| 20260505055703 | 57 | 228 | 2.0 | 3.0 | 0.00 | 0.00 | 0.00 | 74 | 1014.4 |
| 20260505055603 | 57 | 232 | 3.0 | 3.0 | 0.00 | 0.00 | 0.00 | 74 | 1014.5 |
| 20260505055506 | 57 | 230 | 2.0 | 3.0 | 0.00 | 0.00 | 0.00 | 73 | 1014.5 |
| 20260505055404 | 57 | 240 | 2.0 | 3.0 | 0.00 | 0.00 | 0.00 | 73 | 1014.4 |
| 20260505055303 | 57 | 235 | 2.0 | 3.0 | 0.00 | 0.00 | 0.00 | 73 | 1014.4 |
| 20260505055203 | 57 | 248 | 2.0 | 3.0 | 0.00 | 0.00 | 0.00 | 73 | 1014.4 |
| 20260505055006 | 57 | 214 | 0.0 | 3.0 | 0.00 | 0.00 | 0.00 | 72 | 1014.4 |
| 20260505054904 | 57 | 212 | 0.0 | 3.0 | 0.00 | 0.00 | 0.00 | 72 | 1014.4 |
| 20260505054803 | 57 | 218 | 1.0 | 3.0 | 0.00 | 0.00 | 0.00 | 73 | 1014.5 |
| 20260505054703 | 57 | 217 | 2.0 | 3.0 | 0.00 | 0.00 | 0.00 | 73 | 1014.5 |
| 20260505054604 | 57 | 227 | 2.0 | 3.0 | 0.00 | 0.00 | 0.00 | 73 | 1014.4 |
| 20260505054506 | 57 | 218 | 2.0 | 3.0 | 0.00 | 0.00 | 0.00 | 73 | 1014.5 |
| 20260505054302 | 57 | 224 | 2.0 | 3.0 | 0.00 | 0.00 | 0.00 | 73 | 1014.5 |
| 20260505054103 | 57 | 232 | 2.0 | 3.0 | 0.00 | 0.00 | 0.00 | 72 | 1014.5 |
| 20260505053904 | 58 | 240 | 2.0 | 3.0 | 0.00 | 0.00 | 0.00 | 72 | 1014.6 |
| 20260505053704 | 58 | 253 | 1.0 | 3.0 | 0.00 | 0.00 | 0.00 | 72 | 1014.6 |
| 20260505053603 | 58 | 244 | 3.0 | 3.0 | 0.00 | 0.00 | 0.00 | 72 | 1014.6 |
| 20260505053506 | 58 | 251 | 1.0 | 3.0 | 0.00 | 0.00 | 0.00 | 71 | 1014.6 |
| 20260505053403 | 58 | 241 | 2.0 | 3.0 | 0.00 | 0.00 | 0.00 | 72 | 1014.6 |
| 20260505053303 | 58 | 233 | 2.0 | 3.0 | 0.00 | 0.00 | 0.00 | 71 | 1014.7 |
| 20260505053204 | 58 | 238 | 2.0 | 3.0 | 0.00 | 0.00 | 0.00 | 71 | 1014.6 |
| 20260505053103 | 58 | 253 | 2.0 | 3.0 | 0.00 | 0.00 | 0.00 | 71 | 1014.6 |
| 20260505052904 | 58 | 237 | 2.0 | 3.0 | 0.00 | 0.00 | 0.00 | 71 | 1014.6 |
| 20260505052804 | 58 | 228 | 2.0 | 3.0 | 0.00 | 0.00 | 0.00 | 71 | 1014.6 |
| 20260505052703 | 58 | 222 | 2.0 | 3.0 | 0.00 | 0.00 | 0.00 | 70 | 1014.6 |
| 20260505052506 | 58 | 220 | 1.0 | 3.0 | 0.00 | 0.00 | 0.00 | 71 | 1014.7 |
| 20260505052304 | 58 | 228 | 3.0 | 3.0 | 0.00 | 0.00 | 0.00 | 71 | 1014.6 |
| 20260505052203 | 58 | 220 | 3.0 | 3.0 | 0.00 | 0.00 | 0.00 | 71 | 1014.6 |
| 20260505052103 | 58 | 231 | 3.0 | 3.0 | 0.00 | 0.00 | 0.00 | 70 | 1014.6 |
| 20260505052005 | 58 | 238 | 2.0 | 3.0 | 0.00 | 0.00 | 0.00 | 70 | 1014.7 |
| 20260505051903 | 58 | 234 | 3.0 | 3.0 | 0.00 | 0.00 | 0.00 | 70 | 1014.7 |
| 20260505051804 | 58 | 223 | 3.0 | 3.0 | 0.00 | 0.00 | 0.00 | 71 | 1014.6 |
| 20260505051703 | 58 | 239 | 3.0 | 3.0 | 0.00 | 0.00 | 0.00 | 71 | 1014.7 |
| 20260505051603 | 59 | 253 | 2.0 | 3.0 | 0.00 | 0.00 | 0.00 | 71 | 1014.6 |
| 20260505051506 | 59 | 248 | 2.0 | 3.0 | 0.00 | 0.00 | 0.00 | 71 | 1014.6 |
| 20260505051403 | 59 | 243 | 3.0 | 3.0 | 0.00 | 0.00 | 0.00 | 71 | 1014.6 |
| 20260505051103 | 59 | 242 | 2.0 | 3.0 | 0.00 | 0.00 | 0.00 | 70 | 1014.7 |
| 20260505051007 | 59 | 248 | 3.0 | 3.0 | 0.00 | 0.00 | 0.00 | 70 | 1014.5 |
| 20260505050903 | 59 | 255 | 2.0 | 3.0 | 0.00 | 0.00 | 0.00 | 70 | 1014.5 |
| 20260505050803 | 58 | 236 | 3.0 | 3.0 | 0.00 | 0.00 | 0.00 | 70 | 1014.6 |
| 20260505050703 | 59 | 239 | 2.0 | 3.0 | 0.00 | 0.00 | 0.00 | 70 | 1014.6 |
| 20260505050505 | 58 | 242 | 2.0 | 3.0 | 0.00 | 0.00 | 0.00 | 70 | 1014.5 |
| 20260505050203 | 58 | 259 | 2.0 | 3.0 | 0.00 | 0.00 | 0.00 | 70 | 1014.6 |
| 20260505041702 | 59 | 222 | 2.0 | 3.0 | 0.00 | 0.00 | 0.00 | 67 | 1015.0 |
| 20260505041506 | 59 | 197 | 2.0 | 3.0 | 0.00 | 0.00 | 0.00 | 67 | 1015.0 |
| 20260505041403 | 59 | 199 | 1.0 | 3.0 | 0.00 | 0.00 | 0.00 | 67 | 1015.0 |
| 20260505041302 | 60 | 218 | 2.0 | 3.0 | 0.00 | 0.00 | 0.00 | 67 | 1015.1 |
| 20260505041103 | 60 | 218 | 0.0 | 3.0 | 0.00 | 0.00 | 0.00 | 67 | 1015.1 |
| 20260505041006 | 60 | 220 | 1.0 | 3.0 | 0.00 | 0.00 | 0.00 | 67 | 1015.2 |
| 20260505040902 | 60 | 214 | 2.0 | 3.0 | 0.00 | 0.00 | 0.00 | 66 | 1015.1 |
| 20260505040803 | 60 | 208 | 2.0 | 3.0 | 0.00 | 0.00 | 0.00 | 66 | 1015.2 |
| 20260505040702 | 60 | 190 | 1.0 | 3.0 | 0.00 | 0.00 | 0.00 | 66 | 1015.2 |
| 20260505040504 | 60 | 219 | 0.0 | 3.0 | 0.00 | 0.00 | 0.00 | 66 | 1015.2 |
| 20260505040401 | 60 | 199 | 1.0 | 3.0 | 0.00 | 0.00 | 0.00 | 66 | 1015.2 |
| 20260505040302 | 60 | 219 | 1.0 | 3.0 | 0.00 | 0.00 | 0.00 | 66 | 1015.2 |
| 20260505040203 | 60 | 211 | 0.0 | 3.0 | 0.00 | 0.00 | 0.00 | 66 | 1015.2 |
| 20260505040007 | 60 | 213 | 2.0 | 3.0 | 0.00 | 0.00 | 0.00 | 66 | 1015.3 |
| 20260505035901 | 60 | 222 | 2.0 | 3.0 | 0.00 | 0.00 | 0.00 | 66 | 1015.3 |
| 20260505035802 | 60 | 216 | 2.0 | 3.0 | 0.00 | 0.00 | 0.00 | 66 | 1015.4 |
| 20260505035702 | 60 | 232 | 3.0 | 3.0 | 0.00 | 0.00 | 0.00 | 65 | 1015.4 |
| 20260505035602 | 60 | 239 | 2.0 | 3.0 | 0.00 | 0.00 | 0.00 | 66 | 1015.4 |
| 20260505035402 | 61 | 229 | 2.0 | 3.0 | 0.00 | 0.00 | 0.00 | 66 | 1015.4 |
| 20260505035304 | 60 | 213 | 2.0 | 3.0 | 0.00 | 0.00 | 0.00 | 66 | 1015.3 |
| 20260505035203 | 60 | 235 | 3.0 | 3.0 | 0.00 | 0.00 | 0.00 | 65 | 1015.3 |
| 20260505035006 | 61 | 224 | 2.0 | 3.0 | 0.00 | 0.00 | 0.00 | 66 | 1015.3 |
| 20260505034902 | 61 | 230 | 2.0 | 3.0 | 0.00 | 0.00 | 0.00 | 65 | 1015.3 |
| 20260505034802 | 61 | 235 | 2.0 | 3.0 | 0.00 | 0.00 | 0.00 | 65 | 1015.3 |
| 20260505034703 | 61 | 230 | 2.0 | 3.0 | 0.00 | 0.00 | 0.00 | 65 | 1015.3 |
| 20260505034601 | 61 | 210 | 0.0 | 3.0 | 0.00 | 0.00 | 0.00 | 65 | 1015.3 |
| 20260505034506 | 61 | 231 | 2.0 | 3.0 | 0.00 | 0.00 | 0.00 | 65 | 1015.3 |
| 20260505034302 | 61 | 208 | 1.0 | 3.0 | 0.00 | 0.00 | 0.00 | 65 | 1015.3 |
| 20260505034202 | 61 | 218 | 2.0 | 3.0 | 0.00 | 0.00 | 0.00 | 64 | 1015.3 |
| 20260505034102 | 61 | 226 | 2.0 | 3.0 | 0.00 | 0.00 | 0.00 | 64 | 1015.2 |
| 20260505034006 | 61 | 211 | 2.0 | 3.0 | 0.00 | 0.00 | 0.00 | 64 | 1015.2 |
| 20260505033902 | 61 | 191 | 2.0 | 3.0 | 0.00 | 0.00 | 0.00 | 64 | 1015.3 |
| 20260505033802 | 61 | 208 | 2.0 | 3.0 | 0.00 | 0.00 | 0.00 | 64 | 1015.3 |
| 20260505033704 | 61 | 214 | 2.0 | 3.0 | 0.00 | 0.00 | 0.00 | 64 | 1015.3 |
| 20260505033602 | 61 | 223 | 1.0 | 3.0 | 0.00 | 0.00 | 0.00 | 64 | 1015.4 |
| 20260505033506 | 61 | 249 | 2.0 | 3.0 | 0.00 | 0.00 | 0.00 | 64 | 1015.4 |
| 20260505033402 | 61 | 232 | 2.0 | 3.0 | 0.00 | 0.00 | 0.00 | 64 | 1015.4 |
| 20260505033301 | 61 | 239 | 2.0 | 3.0 | 0.00 | 0.00 | 0.00 | 64 | 1015.4 |
| 20260505033203 | 61 | 213 | 2.0 | 2.0 | 0.00 | 0.00 | 0.00 | 63 | 1015.4 |
| 20260505033102 | 61 | 233 | 2.0 | 2.0 | 0.00 | 0.00 | 0.00 | 63 | 1015.4 |
| 20260505033007 | 61 | 225 | 1.0 | 2.0 | 0.00 | 0.00 | 0.00 | 63 | 1015.4 |
| 20260505032902 | 61 | 216 | 2.0 | 2.0 | 0.00 | 0.00 | 0.00 | 63 | 1015.4 |
| 20260505032702 | 62 | 217 | 2.0 | 2.0 | 0.00 | 0.00 | 0.00 | 62 | 1015.4 |
| 20260505032602 | 62 | 218 | 1.0 | 2.0 | 0.00 | 0.00 | 0.00 | 62 | 1015.5 |
| 20260505032506 | 62 | 208 | 0.0 | 2.0 | 0.00 | 0.00 | 0.00 | 62 | 1015.5 |
| 20260505032304 | 62 | 174 | 0.0 | 2.0 | 0.00 | 0.00 | 0.00 | 62 | 1015.5 |
| 20260505032006 | 62 | 214 | 2.0 | 2.0 | 0.00 | 0.00 | 0.00 | 61 | 1015.6 |
| 20260505031901 | 62 | 197 | 0.0 | 2.0 | 0.00 | 0.00 | 0.00 | 61 | 1015.5 |
| 20260505031803 | 62 | 191 | 2.0 | 2.0 | 0.00 | 0.00 | 0.00 | 61 | 1015.7 |
| 20260505031703 | 62 | 208 | 1.0 | 2.0 | 0.00 | 0.00 | 0.00 | 61 | 1015.6 |
| 20260505031603 | 63 | 207 | 2.0 | 3.0 | 0.00 | 0.00 | 0.00 | 61 | 1015.6 |
| 20260505031402 | 63 | 206 | 1.0 | 3.0 | 0.00 | 0.00 | 0.00 | 60 | 1015.7 |
| 20260505031302 | 63 | 221 | 1.0 | 3.0 | 0.00 | 0.00 | 0.00 | 60 | 1015.7 |
| 20260505031202 | 63 | 222 | 2.0 | 3.0 | 0.00 | 0.00 | 0.00 | 60 | 1015.7 |
| 20260505031102 | 63 | 231 | 2.0 | 3.0 | 0.00 | 0.00 | 0.00 | 60 | 1015.7 |
| 20260505031006 | 63 | 214 | 0.0 | 3.0 | 0.00 | 0.00 | 0.00 | 60 | 1015.7 |
| 20260505030902 | 63 | 213 | 2.0 | 3.0 | 0.00 | 0.00 | 0.00 | 60 | 1015.7 |
| 20260505030802 | 63 | 199 | 2.0 | 3.0 | 0.00 | 0.00 | 0.00 | 60 | 1015.6 |
| 20260505030702 | 63 | 210 | 1.0 | 3.0 | 0.00 | 0.00 | 0.00 | 60 | 1015.6 |
| 20260505030602 | 63 | 209 | 1.0 | 3.0 | 0.00 | 0.00 | 0.00 | 60 | 1015.6 |
| 20260505030506 | 63 | 200 | 1.0 | 3.0 | 0.00 | 0.00 | 0.00 | 60 | 1015.6 |
| 20260505030302 | 63 | 188 | 0.0 | 2.0 | 0.00 | 0.00 | 0.00 | 59 | 1015.5 |
| 20260505030202 | 63 | 183 | 0.0 | 2.0 | 0.00 | 0.00 | 0.00 | 59 | 1015.5 |
| 20260505030008 | 64 | 201 | 0.0 | 3.0 | 0.00 | 0.00 | 0.00 | 59 | 1015.4 |
| 20260505025903 | 64 | 201 | 0.0 | 3.0 | 0.00 | 0.00 | 0.00 | 58 | 1015.5 |
| 20260505025803 | 64 | 194 | 0.0 | 3.0 | 0.00 | 0.00 | 0.00 | 58 | 1015.5 |
| 20260505025704 | 64 | 223 | 0.0 | 3.0 | 0.00 | 0.00 | 0.00 | 58 | 1015.5 |
| 20260505025603 | 64 | 201 | 0.0 | 3.0 | 0.00 | 0.00 | 0.00 | 58 | 1015.4 |
| 20260505025506 | 64 | 217 | 0.0 | 3.0 | 0.00 | 0.00 | 0.00 | 58 | 1015.4 |
| 20260505025304 | 65 | 198 | 1.0 | 3.0 | 0.00 | 0.00 | 0.00 | 58 | 1015.5 |
| 20260505025203 | 65 | 188 | 0.0 | 3.0 | 0.00 | 0.00 | 0.00 | 57 | 1015.4 |
| 20260505025103 | 65 | 199 | 3.0 | 3.0 | 0.00 | 0.00 | 0.00 | 57 | 1015.4 |
| 20260505025007 | 65 | 181 | 3.0 | 3.0 | 0.00 | 0.00 | 0.00 | 57 | 1015.4 |
| 20260505024903 | 65 | 164 | 2.0 | 3.0 | 0.00 | 0.00 | 0.00 | 57 | 1015.5 |
| 20260505024805 | 65 | 190 | 2.0 | 3.0 | 0.00 | 0.00 | 0.00 | 57 | 1015.5 |
| 20260505024704 | 65 | 199 | 1.0 | 3.0 | 0.00 | 0.00 | 0.00 | 57 | 1015.5 |
| 20260505024403 | 65 | 176 | 2.0 | 3.0 | 0.00 | 0.00 | 0.00 | 57 | 1015.5 |
| 20260505024304 | 65 | 183 | 2.0 | 3.0 | 0.00 | 0.00 | 0.00 | 56 | 1015.5 |
| 20260505024103 | 65 | 201 | 2.0 | 3.0 | 0.00 | 0.00 | 0.00 | 56 | 1015.5 |
| 20260505024007 | 65 | 183 | 2.0 | 3.0 | 0.00 | 0.00 | 0.00 | 56 | 1015.5 |
| 20260505023903 | 66 | 187 | 0.0 | 3.0 | 0.00 | 0.00 | 0.00 | 56 | 1015.5 |
| 20260505023805 | 66 | 213 | 0.0 | 3.0 | 0.00 | 0.00 | 0.00 | 56 | 1015.5 |
| 20260505023703 | 66 | 187 | 0.0 | 3.0 | 0.00 | 0.00 | 0.00 | 56 | 1015.4 |
| 20260505023603 | 66 | 193 | 1.0 | 3.0 | 0.00 | 0.00 | 0.00 | 56 | 1015.4 |
| 20260505023506 | 66 | 207 | 3.0 | 3.0 | 0.00 | 0.00 | 0.00 | 56 | 1015.4 |
| 20260505023403 | 66 | 229 | 2.0 | 3.0 | 0.00 | 0.00 | 0.00 | 56 | 1015.4 |
| 20260505023303 | 66 | 208 | 0.0 | 3.0 | 0.00 | 0.00 | 0.00 | 56 | 1015.4 |
| 20260505023203 | 66 | 203 | 0.0 | 3.0 | 0.00 | 0.00 | 0.00 | 56 | 1015.4 |
| 20260505023103 | 66 | 193 | 2.0 | 3.0 | 0.00 | 0.00 | 0.00 | 56 | 1015.4 |
| 20260505023007 | 66 | 214 | 2.0 | 3.0 | 0.00 | 0.00 | 0.00 | 56 | 1015.4 |
| 20260505022903 | 66 | 176 | 2.0 | 3.0 | 0.00 | 0.00 | 0.00 | 56 | 1015.3 |
| 20260505022703 | 66 | 153 | 3.0 | 3.0 | 0.00 | 0.00 | 0.00 | 56 | 1015.3 |
| 20260505022505 | 66 | 218 | 0.0 | 3.0 | 0.00 | 0.00 | 0.00 | 56 | 1015.3 |
| 20260505022403 | 66 | 155 | 1.0 | 3.0 | 0.00 | 0.00 | 0.00 | 56 | 1015.3 |
| 20260505022304 | 66 | 200 | 0.0 | 3.0 | 0.00 | 0.00 | 0.00 | 56 | 1015.4 |
| 20260505022203 | 66 | 201 | 0.0 | 3.0 | 0.00 | 0.00 | 0.00 | 56 | 1015.4 |
| 20260505022102 | 66 | 250 | 0.0 | 3.0 | 0.00 | 0.00 | 0.00 | 55 | 1015.2 |
| 20260505022012 | 66 | 194 | 0.0 | 3.0 | 0.00 | 0.00 | 0.00 | 55 | 1015.2 |
| 20260505021904 | 66 | 234 | 0.0 | 2.0 | 0.00 | 0.00 | 0.00 | 55 | 1015.3 |
| 20260505021803 | 66 | 234 | 0.0 | 2.0 | 0.00 | 0.00 | 0.00 | 55 | 1015.2 |
| 20260505021506 | 66 | 234 | 0.0 | 3.0 | 0.00 | 0.00 | 0.00 | 56 | 1015.2 |
| 20260505021403 | 66 | 237 | 0.0 | 3.0 | 0.00 | 0.00 | 0.00 | 55 | 1015.3 |
| 20260505021203 | 66 | 253 | 0.0 | 3.0 | 0.00 | 0.00 | 0.00 | 55 | 1015.3 |
| 20260505021103 | 66 | 225 | 0.0 | 3.0 | 0.00 | 0.00 | 0.00 | 55 | 1015.2 |
| 20260505021009 | 67 | 225 | 0.0 | 3.0 | 0.00 | 0.00 | 0.00 | 55 | 1015.2 |
| 20260505020904 | 67 | 190 | 0.0 | 3.0 | 0.00 | 0.00 | 0.00 | 55 | 1015.2 |
| 20260505020803 | 67 | 169 | 0.0 | 3.0 | 0.00 | 0.00 | 0.00 | 55 | 1015.2 |
| 20260505020704 | 67 | 230 | 0.0 | 3.0 | 0.00 | 0.00 | 0.00 | 55 | 1015.2 |
| 20260505020603 | 67 | 217 | 0.0 | 3.0 | 0.00 | 0.00 | 0.00 | 54 | 1015.2 |
| 20260505020505 | 67 | 214 | 0.0 | 3.0 | 0.00 | 0.00 | 0.00 | 54 | 1015.2 |
| 20260505020403 | 67 | 221 | 0.0 | 3.0 | 0.00 | 0.00 | 0.00 | 54 | 1015.1 |
| 20260505020303 | 67 | 231 | 2.0 | 3.0 | 0.00 | 0.00 | 0.00 | 54 | 1015.1 |
| 20260505020103 | 67 | 235 | 0.0 | 3.0 | 0.00 | 0.00 | 0.00 | 53 | 1015.2 |
| 20260505020008 | 67 | 188 | 0.0 | 3.0 | 0.00 | 0.00 | 0.00 | 53 | 1015.2 |
| 20260505015901 | 67 | 164 | 2.0 | 3.0 | 0.00 | 0.00 | 0.00 | 54 | 1015.2 |
| 20260505015803 | 67 | 195 | 0.0 | 2.0 | 0.00 | 0.00 | 0.00 | 54 | 1015.1 |
| 20260505015703 | 67 | 212 | 0.0 | 2.0 | 0.00 | 0.00 | 0.00 | 54 | 1015.2 |
| 20260505015602 | 67 | 212 | 0.0 | 2.0 | 0.00 | 0.00 | 0.00 | 53 | 1015.1 |
| 20260505015505 | 67 | 218 | 0.0 | 2.0 | 0.00 | 0.00 | 0.00 | 53 | 1015.1 |
| 20260505015403 | 67 | 207 | 0.0 | 3.0 | 0.00 | 0.00 | 0.00 | 54 | 1015.1 |
| 20260505015303 | 67 | 207 | 0.0 | 3.0 | 0.00 | 0.00 | 0.00 | 53 | 1015.1 |
| 20260505015102 | 67 | 226 | 0.0 | 3.0 | 0.00 | 0.00 | 0.00 | 53 | 1015.1 |
| 20260505015010 | 67 | 212 | 0.0 | 3.0 | 0.00 | 0.00 | 0.00 | 53 | 1015.1 |
| 20260505014902 | 67 | 162 | 0.0 | 3.0 | 0.00 | 0.00 | 0.00 | 53 | 1015.2 |
| 20260505014802 | 67 | 198 | 2.0 | 3.0 | 0.00 | 0.00 | 0.00 | 54 | 1015.1 |
| 20260505014702 | 67 | 199 | 1.0 | 3.0 | 0.00 | 0.00 | 0.00 | 54 | 1015.1 |
| 20260505014602 | 67 | 214 | 1.0 | 3.0 | 0.00 | 0.00 | 0.00 | 54 | 1015.2 |
| 20260505014506 | 67 | 216 | 0.0 | 2.0 | 0.00 | 0.00 | 0.00 | 55 | 1015.2 |
| 20260505014403 | 67 | 251 | 0.0 | 2.0 | 0.00 | 0.00 | 0.00 | 54 | 1015.1 |
| 20260505014302 | 67 | 213 | 0.0 | 2.0 | 0.00 | 0.00 | 0.00 | 54 | 1015.1 |
| 20260505014102 | 67 | 207 | 2.0 | 3.0 | 0.00 | 0.00 | 0.00 | 53 | 1015.0 |
| 20260505014006 | 67 | 214 | 0.0 | 3.0 | 0.00 | 0.00 | 0.00 | 54 | 1015.0 |
| 20260505013802 | 67 | 219 | 2.0 | 3.0 | 0.00 | 0.00 | 0.00 | 53 | 1015.0 |
| 20260505013702 | 67 | 208 | 0.0 | 3.0 | 0.00 | 0.00 | 0.00 | 53 | 1014.9 |
| 20260505013602 | 67 | 200 | 0.0 | 3.0 | 0.00 | 0.00 | 0.00 | 53 | 1014.8 |
| 20260505013505 | 67 | 169 | 1.0 | 3.0 | 0.00 | 0.00 | 0.00 | 53 | 1014.9 |
| 20260505013402 | 67 | 192 | 2.0 | 3.0 | 0.00 | 0.00 | 0.00 | 53 | 1014.8 |
| 20260505013303 | 67 | 162 | 0.0 | 3.0 | 0.00 | 0.00 | 0.00 | 53 | 1014.7 |
| 20260505013102 | 67 | 219 | 0.0 | 3.0 | 0.00 | 0.00 | 0.00 | 53 | 1014.7 |
| 20260505013009 | 67 | 217 | 2.0 | 3.0 | 0.00 | 0.00 | 0.00 | 53 | 1014.7 |
| 20260505012902 | 67 | 206 | 0.0 | 3.0 | 0.00 | 0.00 | 0.00 | 53 | 1014.6 |
| 20260505012802 | 68 | 205 | 0.0 | 3.0 | 0.00 | 0.00 | 0.00 | 53 | 1014.7 |
| 20260505012702 | 68 | 181 | 0.0 | 3.0 | 0.00 | 0.00 | 0.00 | 53 | 1014.6 |
| 20260505012603 | 68 | 195 | 2.0 | 3.0 | 0.00 | 0.00 | 0.00 | 53 | 1014.7 |
| 20260505012505 | 67 | 165 | 3.0 | 3.0 | 0.00 | 0.00 | 0.00 | 53 | 1014.6 |
| 20260505012402 | 67 | 205 | 0.0 | 3.0 | 0.00 | 0.00 | 0.00 | 53 | 1014.6 |
| 20260505012202 | 67 | 174 | 2.0 | 3.0 | 0.00 | 0.00 | 0.00 | 53 | 1014.5 |
| 20260505012102 | 67 | 173 | 0.0 | 3.0 | 0.00 | 0.00 | 0.00 | 53 | 1014.5 |
| 20260505012008 | 67 | 176 | 0.0 | 2.0 | 0.00 | 0.00 | 0.00 | 53 | 1014.5 |
| 20260505011902 | 67 | 183 | 1.0 | 2.0 | 0.00 | 0.00 | 0.00 | 53 | 1014.5 |
| 20260505011803 | 67 | 188 | 2.0 | 2.0 | 0.00 | 0.00 | 0.00 | 53 | 1014.6 |
| 20260505011701 | 67 | 192 | 2.0 | 2.0 | 0.00 | 0.00 | 0.00 | 53 | 1014.6 |
| 20260505011602 | 67 | 211 | 0.0 | 3.0 | 0.00 | 0.00 | 0.00 | 53 | 1014.5 |
| 20260505011506 | 67 | 197 | 0.0 | 3.0 | 0.00 | 0.00 | 0.00 | 53 | 1014.5 |
| 20260505011404 | 67 | 200 | 1.0 | 3.0 | 0.00 | 0.00 | 0.00 | 53 | 1014.6 |
| 20260505011302 | 67 | 183 | 0.0 | 3.0 | 0.00 | 0.00 | 0.00 | 52 | 1014.5 |
| 20260505011202 | 67 | 213 | 0.0 | 3.0 | 0.00 | 0.00 | 0.00 | 52 | 1014.4 |
| 20260505011102 | 67 | 215 | 0.0 | 3.0 | 0.00 | 0.00 | 0.00 | 52 | 1014.4 |
| 20260505011007 | 67 | 193 | 0.0 | 3.0 | 0.00 | 0.00 | 0.00 | 52 | 1014.4 |
| 20260505010903 | 67 | 241 | 1.0 | 3.0 | 0.00 | 0.00 | 0.00 | 52 | 1014.4 |
| 20260505010802 | 67 | 218 | 0.0 | 3.0 | 0.00 | 0.00 | 0.00 | 52 | 1014.3 |
| 20260505010602 | 68 | 188 | 1.0 | 3.0 | 0.00 | 0.00 | 0.00 | 52 | 1014.4 |
| 20260505010505 | 68 | 179 | 0.0 | 3.0 | 0.00 | 0.00 | 0.00 | 52 | 1014.4 |
| 20260505010302 | 68 | 200 | 0.0 | 3.0 | 0.00 | 0.00 | 0.00 | 51 | 1014.3 |
| 20260505010202 | 68 | 217 | 0.0 | 3.0 | 0.00 | 0.00 | 0.00 | 50 | 1014.3 |
| 20260505010103 | 68 | 179 | 2.0 | 3.0 | 0.00 | 0.00 | 0.00 | 49 | 1014.3 |
| 20260505010013 | 68 | 232 | 0.0 | 3.0 | 0.00 | 0.00 | 0.00 | 47 | 1014.3 |
| 20260505005902 | 69 | 235 | 2.0 | 3.0 | 0.00 | 0.00 | 0.00 | 45 | 1014.2 |
| 20260505005802 | 69 | 238 | 2.0 | 2.0 | 0.00 | 0.00 | 0.00 | 45 | 1014.2 |
| 20260505005701 | 69 | 238 | 0.0 | 2.0 | 0.00 | 0.00 | 0.00 | 44 | 1014.2 |
| 20260505005506 | 69 | 250 | 1.0 | 2.0 | 0.00 | 0.00 | 0.00 | 43 | 1014.2 |
| 20260505005403 | 69 | 231 | 0.0 | 2.0 | 0.00 | 0.00 | 0.00 | 44 | 1014.0 |
| 20260505005303 | 69 | 227 | 0.0 | 2.0 | 0.00 | 0.00 | 0.00 | 45 | 1013.9 |
| 20260505005202 | 69 | 250 | 0.0 | 0.0 | 0.00 | 0.00 | 0.00 | 44 | 1013.9 |
| 20260505005102 | 69 | 323 | 0.0 | 0.0 | 0.00 | 0.00 | 0.00 | 44 | 1013.9 |
| 20260505005006 | 69 | 323 | 0.0 | 0.0 | 0.00 | 0.00 | 0.00 | 44 | 1013.9 |
| 20260505004902 | 69 | 323 | 0.0 | 0.0 | 0.00 | 0.00 | 0.00 | 44 | 1013.9 |
| 20260505004802 | 69 | 323 | 0.0 | 0.0 | 0.00 | 0.00 | 0.00 | 44 | 1013.9 |
| 20260505004702 | 69 | 323 | 0.0 | 0.0 | 0.00 | 0.00 | 0.00 | 44 | 1014.0 |
| 20260505004602 | 69 | 323 | 0.0 | 0.0 | 0.00 | 0.00 | 0.00 | 44 | 1014.0 |
| 20260505004506 | 69 | 323 | 0.0 | 0.0 | 0.00 | 0.00 | 0.00 | 44 | 1014.1 |
| 20260505004403 | 69 | 323 | 0.0 | 0.0 | 0.00 | 0.00 | 0.00 | 44 | 1014.1 |
| 20260505004302 | 70 | 323 | 0.0 | 0.0 | 0.00 | 0.00 | 0.00 | 44 | 1014.2 |
| 20260505004202 | 70 | 323 | 0.0 | 0.0 | 0.00 | 0.00 | 0.00 | 44 | 1014.1 |
| 20260505004102 | 70 | 323 | 0.0 | 0.0 | 0.00 | 0.00 | 0.00 | 43 | 1014.2 |
| 20260505004011 | 70 | 323 | 0.0 | 0.0 | 0.00 | 0.00 | 0.00 | 43 | 1014.2 |
| 20260505003801 | 70 | 323 | 0.0 | 0.0 | 0.00 | 0.00 | 0.00 | 43 | 1014.0 |
| 20260505003702 | 70 | 323 | 0.0 | 0.0 | 0.00 | 0.00 | 0.00 | 43 | 1014.0 |
| 20260505003603 | 70 | 323 | 0.0 | 0.0 | 0.00 | 0.00 | 0.00 | 43 | 1014.0 |
| 20260505003505 | 70 | 323 | 0.0 | 0.0 | 0.00 | 0.00 | 0.00 | 43 | 1014.0 |
| 20260505003402 | 70 | 323 | 0.0 | 0.0 | 0.00 | 0.00 | 0.00 | 43 | 1014.0 |
| 20260505003301 | 70 | 323 | 0.0 | 0.0 | 0.00 | 0.00 | 0.00 | 43 | 1014.0 |
| 20260505003201 | 70 | 323 | 0.0 | 0.0 | 0.00 | 0.00 | 0.00 | 43 | 1014.0 |
| 20260505003102 | 71 | 323 | 0.0 | 0.0 | 0.00 | 0.00 | 0.00 | 42 | 1014.0 |
| 20260505003012 | 71 | 323 | 0.0 | 0.0 | 0.00 | 0.00 | 0.00 | 42 | 1014.0 |
| 20260505002902 | 71 | 323 | 0.0 | 0.0 | 0.00 | 0.00 | 0.00 | 42 | 1014.0 |
| 20260505002803 | 71 | 323 | 0.0 | 0.0 | 0.00 | 0.00 | 0.00 | 42 | 1014.0 |
| 20260505002701 | 71 | 323 | 0.0 | 0.0 | 0.00 | 0.00 | 0.00 | 42 | 1014.0 |
| 20260505002602 | 71 | 323 | 0.0 | 0.0 | 0.00 | 0.00 | 0.00 | 42 | 1014.0 |
| 20260505002403 | 71 | 323 | 0.0 | 0.0 | 0.00 | 0.00 | 0.00 | 44 | 1014.0 |
| 20260505002304 | 71 | 323 | 0.0 | 0.0 | 0.00 | 0.00 | 0.00 | 42 | 1014.0 |
| 20260505002203 | 71 | 323 | 0.0 | 0.0 | 0.00 | 0.00 | 0.00 | 42 | 1013.9 |
| 20260505002102 | 71 | 323 | 0.0 | 0.0 | 0.00 | 0.00 | 0.00 | 41 | 1013.9 |
| 20260505002012 | 71 | 323 | 0.0 | 0.0 | 0.00 | 0.00 | 0.00 | 41 | 1013.9 |
| 20260505001902 | 71 | 323 | 0.0 | 0.0 | 0.00 | 0.00 | 0.00 | 41 | 1013.9 |
| 20260505001801 | 72 | 323 | 0.0 | 0.0 | 0.00 | 0.00 | 0.00 | 41 | 1013.9 |
| 20260505001701 | 72 | 323 | 0.0 | 0.0 | 0.00 | 0.00 | 0.00 | 41 | 1014.0 |
| 20260505001603 | 72 | 323 | 0.0 | 0.0 | 0.00 | 0.00 | 0.00 | 40 | 1014.0 |
| 20260505001505 | 72 | 323 | 0.0 | 0.0 | 0.00 | 0.00 | 0.00 | 40 | 1014.0 |
| 20260505001402 | 72 | 323 | 0.0 | 0.0 | 0.00 | 0.00 | 0.00 | 40 | 1013.9 |
| 20260505001301 | 72 | 323 | 0.0 | 0.0 | 0.00 | 0.00 | 0.00 | 40 | 1013.9 |
| 20260505001202 | 72 | 323 | 0.0 | 0.0 | 0.00 | 0.00 | 0.00 | 40 | 1013.8 |
| 20260505001103 | 72 | 323 | 0.0 | 0.0 | 0.00 | 0.00 | 0.00 | 40 | 1013.8 |
| 20260505001013 | 72 | 323 | 0.0 | 0.0 | 0.00 | 0.00 | 0.00 | 40 | 1013.8 |
| 20260505000902 | 73 | 323 | 0.0 | 2.0 | 0.00 | 0.00 | 0.00 | 39 | 1013.9 |
| 20260505000802 | 73 | 323 | 0.0 | 2.0 | 0.00 | 0.00 | 0.00 | 39 | 1013.8 |
| 20260505000701 | 73 | 323 | 0.0 | 2.0 | 0.00 | 0.00 | 0.00 | 39 | 1013.9 |
| 20260505000602 | 73 | 323 | 0.0 | 2.0 | 0.00 | 0.00 | 0.00 | 38 | 1013.9 |
| 20260505000505 | 73 | 323 | 0.0 | 2.0 | 0.00 | 0.00 | 0.00 | 39 | 1013.9 |
| 20260505000405 | 73 | 323 | 0.0 | 2.0 | 0.00 | 0.00 | 0.00 | 38 | 1013.9 |
| 20260505000301 | 73 | 323 | 0.0 | 2.0 | 0.00 | 0.00 | 0.00 | 38 | 1013.9 |
| 20260504235902 | 73 | 344 | 2.0 | 2.0 | 0.00 | 0.00 | 0.00 | 37 | 1013.9 |
| 20260504235802 | 74 | 333 | 0.0 | 0.0 | 0.00 | 0.00 | 0.00 | 37 | 1013.9 |
| 20260504235702 | 74 | 333 | 0.0 | 0.0 | 0.00 | 0.00 | 0.00 | 37 | 1013.9 |
| 20260504235601 | 74 | 333 | 0.0 | 0.0 | 0.00 | 0.00 | 0.00 | 37 | 1013.9 |
| 20260504235505 | 74 | 333 | 0.0 | 2.0 | 0.00 | 0.00 | 0.00 | 37 | 1013.9 |
| 20260504235402 | 74 | 333 | 0.0 | 2.0 | 0.00 | 0.00 | 0.00 | 37 | 1013.9 |
| 20260504235304 | 74 | 331 | 0.0 | 2.0 | 0.00 | 0.00 | 0.00 | 37 | 1013.8 |
| 20260504235202 | 74 | 331 | 0.0 | 2.0 | 0.00 | 0.00 | 0.00 | 37 | 1013.8 |
| 20260504235102 | 74 | 323 | 0.0 | 3.0 | 0.00 | 0.00 | 0.00 | 36 | 1013.9 |
| 20260504235008 | 74 | 323 | 0.0 | 3.0 | 0.00 | 0.00 | 0.00 | 36 | 1013.9 |
| 20260504234902 | 74 | 323 | 0.0 | 3.0 | 0.00 | 0.00 | 0.00 | 35 | 1013.9 |
| 20260504234802 | 74 | 323 | 0.0 | 3.0 | 0.00 | 0.00 | 0.00 | 35 | 1013.8 |
| 20260504234702 | 75 | 323 | 0.0 | 3.0 | 0.00 | 0.00 | 0.00 | 35 | 1013.9 |
| 20260504234602 | 75 | 323 | 0.0 | 3.0 | 0.00 | 0.00 | 0.00 | 35 | 1013.9 |
| 20260504234506 | 75 | 311 | 0.0 | 3.0 | 0.00 | 0.00 | 0.00 | 34 | 1013.8 |
| 20260504234401 | 75 | 311 | 0.0 | 3.0 | 0.00 | 0.00 | 0.00 | 34 | 1013.9 |
| 20260504234301 | 75 | 302 | 0.0 | 3.0 | 0.00 | 0.00 | 0.00 | 34 | 1013.9 |
| 20260504234202 | 75 | 1 | 2.0 | 3.0 | 0.00 | 0.00 | 0.00 | 34 | 1013.9 |
| 20260504234101 | 75 | 329 | 0.0 | 3.0 | 0.00 | 0.00 | 0.00 | 34 | 1013.9 |
| 20260504234013 | 75 | 314 | 0.0 | 3.0 | 0.00 | 0.00 | 0.00 | 34 | 1013.9 |
| 20260504233802 | 75 | 358 | 2.0 | 3.0 | 0.00 | 0.00 | 0.00 | 34 | 1014.0 |
| 20260504233602 | 75 | 314 | 1.0 | 2.0 | 0.00 | 0.00 | 0.00 | 33 | 1013.9 |
| 20260504233505 | 75 | 282 | 1.0 | 2.0 | 0.00 | 0.00 | 0.00 | 33 | 1014.0 |
| 20260504233401 | 75 | 360 | 2.0 | 2.0 | 0.00 | 0.00 | 0.00 | 33 | 1014.0 |
| 20260504233303 | 75 | 324 | 2.0 | 2.0 | 0.00 | 0.00 | 0.00 | 32 | 1013.9 |
| 20260504233202 | 75 | 257 | 0.0 | 2.0 | 0.00 | 0.00 | 0.00 | 34 | 1013.9 |
| 20260504233102 | 76 | 279 | 2.0 | 2.0 | 0.00 | 0.00 | 0.00 | 32 | 1013.9 |
| 20260504233005 | 75 | 330 | 1.0 | 2.0 | 0.00 | 0.00 | 0.00 | 33 | 1013.9 |
| 20260504232902 | 76 | 316 | 0.0 | 2.0 | 0.00 | 0.00 | 0.00 | 33 | 1013.9 |
| 20260504232801 | 76 | 314 | 1.0 | 2.0 | 0.00 | 0.00 | 0.00 | 32 | 1013.9 |
| 20260504232702 | 76 | 312 | 1.0 | 3.0 | 0.00 | 0.00 | 0.00 | 34 | 1013.8 |
| 20260504232602 | 76 | 319 | 0.0 | 4.0 | 0.00 | 0.00 | 0.00 | 33 | 1013.8 |
| 20260504232506 | 76 | 8 | 1.0 | 4.0 | 0.00 | 0.00 | 0.00 | 32 | 1013.8 |
| 20260504232402 | 76 | 256 | 0.0 | 4.0 | 0.00 | 0.00 | 0.00 | 33 | 1013.7 |
| 20260504232303 | 76 | 288 | 1.0 | 4.0 | 0.00 | 0.00 | 0.00 | 32 | 1013.7 |
| 20260504232201 | 76 | 300 | 1.0 | 4.0 | 0.00 | 0.00 | 0.00 | 32 | 1013.6 |
| 20260504232102 | 76 | 310 | 1.0 | 4.0 | 0.00 | 0.00 | 0.00 | 32 | 1013.6 |
| 20260504232005 | 76 | 294 | 1.0 | 4.0 | 0.00 | 0.00 | 0.00 | 32 | 1013.6 |
| 20260504231902 | 76 | 311 | 1.0 | 4.0 | 0.00 | 0.00 | 0.00 | 31 | 1013.6 |
| 20260504231803 | 76 | 4 | 2.0 | 4.0 | 0.00 | 0.00 | 0.00 | 31 | 1013.7 |
| 20260504231701 | 76 | 294 | 0.0 | 3.0 | 0.00 | 0.00 | 0.00 | 31 | 1013.6 |
| 20260504231602 | 76 | 323 | 1.0 | 3.0 | 0.00 | 0.00 | 0.00 | 31 | 1013.6 |
| 20260504231302 | 76 | 338 | 0.0 | 5.0 | 0.00 | 0.00 | 0.00 | 30 | 1013.7 |
| 20260504231202 | 76 | 10 | 1.0 | 5.0 | 0.00 | 0.00 | 0.00 | 31 | 1013.7 |
| 20260504231102 | 76 | 323 | 0.0 | 5.0 | 0.00 | 0.00 | 0.00 | 31 | 1013.7 |
| 20260504231005 | 76 | 340 | 2.0 | 5.0 | 0.00 | 0.00 | 0.00 | 31 | 1013.7 |
| 20260504230903 | 76 | 10 | 3.0 | 5.0 | 0.00 | 0.00 | 0.00 | 31 | 1013.7 |
| 20260504230602 | 77 | 333 | 1.0 | 5.0 | 0.00 | 0.00 | 0.00 | 30 | 1013.8 |
| 20260504230505 | 77 | 360 | 4.0 | 5.0 | 0.00 | 0.00 | 0.00 | 32 | 1013.8 |
| 20260504230402 | 77 | 295 | 0.0 | 4.0 | 0.00 | 0.00 | 0.00 | 32 | 1013.8 |
| 20260504230201 | 77 | 276 | 3.0 | 4.0 | 0.00 | 0.00 | 0.00 | 32 | 1013.8 |
| 20260504230007 | 77 | 287 | 1.0 | 4.0 | 0.00 | 0.00 | 0.00 | 31 | 1013.8 |
| 20260504225903 | 77 | 294 | 1.0 | 3.0 | 0.00 | 0.00 | 0.00 | 31 | 1013.8 |
| 20260504225802 | 77 | 78 | 0.0 | 3.0 | 0.00 | 0.00 | 0.00 | 32 | 1013.8 |
| 20260504225702 | 77 | 300 | 0.0 | 3.0 | 0.00 | 0.00 | 0.00 | 32 | 1013.8 |
| 20260504225603 | 77 | 300 | 0.0 | 3.0 | 0.00 | 0.00 | 0.00 | 32 | 1013.8 |
| 20260504225506 | 77 | 331 | 0.0 | 3.0 | 0.00 | 0.00 | 0.00 | 32 | 1013.8 |
| 20260504225402 | 77 | 333 | 0.0 | 3.0 | 0.00 | 0.00 | 0.00 | 32 | 1013.8 |
| 20260504225202 | 77 | 284 | 2.0 | 3.0 | 0.00 | 0.00 | 0.00 | 33 | 1013.8 |
| 20260504225102 | 77 | 307 | 3.0 | 3.0 | 0.00 | 0.00 | 0.00 | 33 | 1013.8 |
| 20260504225006 | 77 | 312 | 2.0 | 3.0 | 0.00 | 0.00 | 0.00 | 32 | 1013.7 |
| 20260504224903 | 77 | 349 | 3.0 | 3.0 | 0.00 | 0.00 | 0.00 | 33 | 1013.8 |
| 20260504224802 | 77 | 287 | 2.0 | 3.0 | 0.00 | 0.00 | 0.00 | 32 | 1013.8 |
| 20260504224506 | 77 | 319 | 2.0 | 3.0 | 0.00 | 0.00 | 0.00 | 32 | 1013.8 |
| 20260504224401 | 77 | 267 | 3.0 | 3.0 | 0.00 | 0.00 | 0.00 | 33 | 1013.9 |
| 20260504224202 | 77 | 337 | 0.0 | 3.0 | 0.00 | 0.00 | 0.00 | 34 | 1013.9 |
| 20260504224102 | 77 | 314 | 0.0 | 3.0 | 0.00 | 0.00 | 0.00 | 33 | 1013.9 |
| 20260504224006 | 77 | 307 | 2.0 | 4.0 | 0.00 | 0.00 | 0.00 | 33 | 1013.9 |
| 20260504223903 | 77 | 302 | 0.0 | 4.0 | 0.00 | 0.00 | 0.00 | 33 | 1014.0 |
| 20260504223702 | 77 | 254 | 0.0 | 4.0 | 0.00 | 0.00 | 0.00 | 34 | 1013.9 |
| 20260504223603 | 77 | 311 | 2.0 | 4.0 | 0.00 | 0.00 | 0.00 | 33 | 1014.0 |
| 20260504223504 | 77 | 265 | 1.0 | 4.0 | 0.00 | 0.00 | 0.00 | 34 | 1014.0 |
| 20260504223402 | 77 | 279 | 2.0 | 4.0 | 0.00 | 0.00 | 0.00 | 34 | 1014.0 |
| 20260504223302 | 77 | 289 | 2.0 | 4.0 | 0.00 | 0.00 | 0.00 | 33 | 1013.9 |
| 20260504223201 | 77 | 120 | 0.0 | 4.0 | 0.00 | 0.00 | 0.00 | 33 | 1014.0 |
| 20260504223102 | 77 | 1 | 1.0 | 4.0 | 0.00 | 0.00 | 0.00 | 33 | 1014.0 |
| 20260504223006 | 77 | 335 | 0.0 | 3.0 | 0.00 | 0.00 | 0.00 | 32 | 1014.0 |
| 20260504222902 | 77 | 4 | 1.0 | 3.0 | 0.00 | 0.00 | 0.00 | 33 | 1013.9 |
| 20260504222802 | 77 | 309 | 0.0 | 3.0 | 0.00 | 0.00 | 0.00 | 32 | 1014.0 |
| 20260504222603 | 77 | 326 | 2.0 | 3.0 | 0.00 | 0.00 | 0.00 | 33 | 1014.0 |
| 20260504222505 | 77 | 288 | 0.0 | 3.0 | 0.00 | 0.00 | 0.00 | 34 | 1014.1 |
| 20260504222402 | 77 | 274 | 2.0 | 3.0 | 0.00 | 0.00 | 0.00 | 34 | 1014.0 |
| 20260504222304 | 77 | 314 | 2.0 | 3.0 | 0.00 | 0.00 | 0.00 | 33 | 1014.1 |
| 20260504222202 | 77 | 278 | 3.0 | 3.0 | 0.00 | 0.00 | 0.00 | 32 | 1014.1 |
| 20260504222102 | 77 | 314 | 0.0 | 3.0 | 0.00 | 0.00 | 0.00 | 32 | 1014.1 |
| 20260504222007 | 77 | 314 | 0.0 | 3.0 | 0.00 | 0.00 | 0.00 | 33 | 1014.1 |
| 20260504221901 | 77 | 359 | 2.0 | 3.0 | 0.00 | 0.00 | 0.00 | 32 | 1014.2 |
| 20260504221801 | 77 | 326 | 2.0 | 3.0 | 0.00 | 0.00 | 0.00 | 33 | 1014.2 |
| 20260504221702 | 77 | 307 | 2.0 | 4.0 | 0.00 | 0.00 | 0.00 | 32 | 1014.2 |
| 20260504221601 | 77 | 302 | 0.0 | 4.0 | 0.00 | 0.00 | 0.00 | 33 | 1014.1 |
| 20260504221506 | 77 | 304 | 1.0 | 4.0 | 0.00 | 0.00 | 0.00 | 33 | 1014.1 |
| 20260504221403 | 77 | 319 | 2.0 | 4.0 | 0.00 | 0.00 | 0.00 | 34 | 1014.1 |
| 20260504221201 | 77 | 269 | 0.0 | 4.0 | 0.00 | 0.00 | 0.00 | 32 | 1014.0 |
| 20260504221101 | 78 | 338 | 3.0 | 4.0 | 0.00 | 0.00 | 0.00 | 32 | 1014.1 |
| 20260504220902 | 78 | 328 | 1.0 | 5.0 | 0.00 | 0.00 | 0.00 | 31 | 1014.1 |
| 20260504220802 | 78 | 6 | 2.0 | 5.0 | 0.00 | 0.00 | 0.00 | 32 | 1014.1 |
| 20260504220702 | 78 | 15 | 4.0 | 5.0 | 0.00 | 0.00 | 0.00 | 32 | 1014.1 |
| 20260504220505 | 78 | 146 | 2.0 | 5.0 | 0.00 | 0.00 | 0.00 | 33 | 1014.1 |
| 20260504220402 | 78 | 266 | 2.0 | 5.0 | 0.00 | 0.00 | 0.00 | 32 | 1014.2 |
| 20260504220203 | 78 | 300 | 1.0 | 5.0 | 0.00 | 0.00 | 0.00 | 32 | 1014.2 |
| 20260504220008 | 78 | 309 | 2.0 | 4.0 | 0.00 | 0.00 | 0.00 | 32 | 1014.1 |
| 20260504215902 | 78 | 273 | 4.0 | 4.0 | 0.00 | 0.00 | 0.00 | 32 | 1014.2 |
| 20260504215803 | 78 | 355 | 3.0 | 4.0 | 0.00 | 0.00 | 0.00 | 32 | 1014.2 |
| 20260504215702 | 78 | 321 | 1.0 | 4.0 | 0.00 | 0.00 | 0.00 | 32 | 1014.2 |
| 20260504215602 | 78 | 328 | 2.0 | 4.0 | 0.00 | 0.00 | 0.00 | 32 | 1014.1 |
| 20260504215505 | 78 | 186 | 2.0 | 4.0 | 0.00 | 0.00 | 0.00 | 32 | 1014.1 |
| 20260504215401 | 78 | 328 | 0.0 | 4.0 | 0.00 | 0.00 | 0.00 | 32 | 1014.1 |
| 20260504215304 | 78 | 287 | 2.0 | 4.0 | 0.00 | 0.00 | 0.00 | 32 | 1014.2 |
| 20260504215203 | 78 | 328 | 0.0 | 3.0 | 0.00 | 0.00 | 0.00 | 31 | 1014.1 |
| 20260504215102 | 78 | 248 | 0.0 | 3.0 | 0.00 | 0.00 | 0.00 | 31 | 1014.1 |
| 20260504215005 | 78 | 265 | 1.0 | 3.0 | 0.00 | 0.00 | 0.00 | 31 | 1014.1 |
| 20260504214901 | 78 | 306 | 2.0 | 4.0 | 0.00 | 0.00 | 0.00 | 31 | 1014.2 |
| 20260504214802 | 78 | 242 | 2.0 | 4.0 | 0.00 | 0.00 | 0.00 | 31 | 1014.1 |
| 20260504214701 | 78 | 261 | 0.0 | 4.0 | 0.00 | 0.00 | 0.00 | 30 | 1014.1 |
| 20260504214601 | 78 | 288 | 3.0 | 4.0 | 0.00 | 0.00 | 0.00 | 29 | 1014.1 |
| 20260504214505 | 78 | 333 | 2.0 | 4.0 | 0.00 | 0.00 | 0.00 | 29 | 1014.1 |
| 20260504214404 | 78 | 340 | 1.0 | 4.0 | 0.00 | 0.00 | 0.00 | 29 | 1014.0 |
| 20260504214302 | 78 | 244 | 0.0 | 4.0 | 0.00 | 0.00 | 0.00 | 28 | 1014.1 |
| 20260504214202 | 78 | 237 | 0.0 | 5.0 | 0.00 | 0.00 | 0.00 | 31 | 1014.1 |
| 20260504214102 | 79 | 255 | 3.0 | 5.0 | 0.00 | 0.00 | 0.00 | 31 | 1014.0 |
| 20260504214007 | 79 | 259 | 2.0 | 5.0 | 0.00 | 0.00 | 0.00 | 30 | 1014.0 |
| 20260504213903 | 79 | 286 | 2.0 | 5.0 | 0.00 | 0.00 | 0.00 | 29 | 1014.0 |
| 20260504213702 | 79 | 200 | 0.0 | 5.0 | 0.00 | 0.00 | 0.00 | 30 | 1014.0 |
| 20260504213601 | 79 | 139 | 1.0 | 5.0 | 0.00 | 0.00 | 0.00 | 31 | 1014.0 |
| 20260504213505 | 79 | 73 | 0.0 | 5.0 | 0.00 | 0.00 | 0.00 | 31 | 1014.0 |
| 20260504213402 | 79 | 193 | 0.0 | 5.0 | 0.00 | 0.00 | 0.00 | 32 | 1014.0 |
| 20260504213302 | 79 | 214 | 0.0 | 3.0 | 0.00 | 0.00 | 0.00 | 33 | 1014.0 |
| 20260504213202 | 79 | 251 | 0.0 | 4.0 | 0.00 | 0.00 | 0.00 | 32 | 1014.0 |
| 20260504213102 | 79 | 245 | 2.0 | 4.0 | 0.00 | 0.00 | 0.00 | 31 | 1013.9 |
| 20260504213006 | 79 | 169 | 0.0 | 4.0 | 0.00 | 0.00 | 0.00 | 31 | 1013.9 |
| 20260504212901 | 79 | 141 | 0.0 | 4.0 | 0.00 | 0.00 | 0.00 | 31 | 1013.9 |
| 20260504212802 | 79 | 147 | 0.0 | 4.0 | 0.00 | 0.00 | 0.00 | 31 | 1014.0 |
| 20260504212701 | 79 | 174 | 1.0 | 4.0 | 0.00 | 0.00 | 0.00 | 31 | 1014.0 |
| 20260504212602 | 79 | 188 | 0.0 | 4.0 | 0.00 | 0.00 | 0.00 | 31 | 1014.0 |
| 20260504212505 | 79 | 233 | 0.0 | 4.0 | 0.00 | 0.00 | 0.00 | 29 | 1013.9 |
| 20260504212401 | 79 | 335 | 2.0 | 4.0 | 0.00 | 0.00 | 0.00 | 30 | 1013.9 |
| 20260504212303 | 79 | 309 | 1.0 | 4.0 | 0.00 | 0.00 | 0.00 | 30 | 1014.0 |
| 20260504212202 | 79 | 127 | 1.0 | 4.0 | 0.00 | 0.00 | 0.00 | 30 | 1014.0 |
| 20260504212102 | 79 | 24 | 1.0 | 3.0 | 0.00 | 0.00 | 0.00 | 32 | 1014.0 |
| 20260504212007 | 80 | 239 | 3.0 | 3.0 | 0.00 | 0.00 | 0.00 | 30 | 1014.0 |
| 20260504211902 | 80 | 196 | 1.0 | 3.0 | 0.00 | 0.00 | 0.00 | 31 | 1013.9 |
| 20260504211802 | 80 | 359 | 0.0 | 3.0 | 0.00 | 0.00 | 0.00 | 31 | 1013.9 |
| 20260504211702 | 80 | 300 | 2.0 | 3.0 | 0.00 | 0.00 | 0.00 | 31 | 1013.9 |
| 20260504211602 | 80 | 216 | 1.0 | 3.0 | 0.00 | 0.00 | 0.00 | 31 | 1013.9 |
| 20260504211505 | 79 | 356 | 0.0 | 4.0 | 0.00 | 0.00 | 0.00 | 30 | 1013.9 |
| 20260504211302 | 79 | 309 | 1.0 | 4.0 | 0.00 | 0.00 | 0.00 | 29 | 1014.0 |
| 20260504211202 | 80 | 205 | 0.0 | 4.0 | 0.00 | 0.00 | 0.00 | 30 | 1014.0 |
| 20260504211102 | 80 | 341 | 2.0 | 4.0 | 0.00 | 0.00 | 0.00 | 29 | 1014.0 |
| 20260504211005 | 80 | 233 | 2.0 | 4.0 | 0.00 | 0.00 | 0.00 | 29 | 1014.0 |
| 20260504210902 | 80 | 305 | 2.0 | 4.0 | 0.00 | 0.00 | 0.00 | 30 | 1014.1 |
| 20260504210703 | 80 | 328 | 0.0 | 4.0 | 0.00 | 0.00 | 0.00 | 30 | 1014.0 |
| 20260504210602 | 80 | 345 | 1.0 | 4.0 | 0.00 | 0.00 | 0.00 | 30 | 1014.1 |
| 20260504210401 | 80 | 198 | 0.0 | 4.0 | 0.00 | 0.00 | 0.00 | 28 | 1014.0 |
| 20260504210302 | 80 | 262 | 1.0 | 4.0 | 0.00 | 0.00 | 0.00 | 29 | 1014.0 |
| 20260504210202 | 79 | 291 | 3.0 | 4.0 | 0.00 | 0.00 | 0.00 | 31 | 1014.0 |
| 20260504210006 | 79 | 167 | 0.0 | 4.0 | 0.00 | 0.00 | 0.00 | 32 | 1013.9 |
| 20260504205801 | 79 | 247 | 2.0 | 5.0 | 0.00 | 0.00 | 0.00 | 31 | 1014.0 |
| 20260504205701 | 79 | 241 | 1.0 | 5.0 | 0.00 | 0.00 | 0.00 | 33 | 1013.9 |
| 20260504205601 | 79 | 266 | 3.0 | 5.0 | 0.00 | 0.00 | 0.00 | 31 | 1014.1 |
| 20260504205505 | 79 | 212 | 0.0 | 5.0 | 0.00 | 0.00 | 0.00 | 31 | 1014.1 |
| 20260504205400 | 79 | 121 | 0.0 | 5.0 | 0.00 | 0.00 | 0.00 | 30 | 1014.1 |
| 20260504205201 | 79 | 210 | 2.0 | 7.0 | 0.00 | 0.00 | 0.00 | 32 | 1014.0 |
| 20260504205005 | 78 | 345 | 0.0 | 7.0 | 0.00 | 0.00 | 0.00 | 31 | 1014.1 |
| 20260504204901 | 78 | 264 | 3.0 | 7.0 | 0.00 | 0.00 | 0.00 | 32 | 1014.2 |
| 20260504204801 | 79 | 273 | 4.0 | 7.0 | 0.00 | 0.00 | 0.00 | 31 | 1014.2 |
| 20260504204700 | 79 | 295 | 3.0 | 7.0 | 0.00 | 0.00 | 0.00 | 30 | 1014.2 |
| 20260504204601 | 79 | 310 | 2.0 | 7.0 | 0.00 | 0.00 | 0.00 | 30 | 1014.3 |
| 20260504204505 | 79 | 333 | 3.0 | 7.0 | 0.00 | 0.00 | 0.00 | 30 | 1014.3 |
| 20260504204401 | 79 | 359 | 4.0 | 7.0 | 0.00 | 0.00 | 0.00 | 31 | 1014.3 |
| 20260504204301 | 79 | 336 | 3.0 | 5.0 | 0.00 | 0.00 | 0.00 | 31 | 1014.2 |
| 20260504204101 | 79 | 5 | 5.0 | 5.0 | 0.00 | 0.00 | 0.00 | 32 | 1014.3 |
| 20260504203901 | 79 | 289 | 3.0 | 4.0 | 0.00 | 0.00 | 0.00 | 33 | 1014.3 |
| 20260504203601 | 79 | 233 | 3.0 | 4.0 | 0.00 | 0.00 | 0.00 | 31 | 1014.4 |
| 20260504203505 | 79 | 71 | 0.0 | 4.0 | 0.00 | 0.00 | 0.00 | 31 | 1014.4 |
| 20260504203401 | 79 | 150 | 0.0 | 4.0 | 0.00 | 0.00 | 0.00 | 29 | 1014.3 |
| 20260504203101 | 79 | 118 | 3.0 | 5.0 | 0.00 | 0.00 | 0.00 | 32 | 1014.5 |
| 20260504202900 | 80 | 355 | 0.0 | 6.0 | 0.00 | 0.00 | 0.00 | 32 | 1014.5 |
| 20260504202701 | 79 | 321 | 3.0 | 6.0 | 0.00 | 0.00 | 0.00 | 32 | 1014.6 |
| 20260504202601 | 79 | 188 | 2.0 | 6.0 | 0.00 | 0.00 | 0.00 | 34 | 1014.5 |
| 20260504202402 | 79 | 188 | 2.0 | 6.0 | 0.00 | 0.00 | 0.00 | 33 | 1014.5 |
| 20260504202300 | 79 | 130 | 0.0 | 6.0 | 0.00 | 0.00 | 0.00 | 34 | 1014.5 |
| 20260504202201 | 79 | 128 | 2.0 | 6.0 | 0.00 | 0.00 | 0.00 | 34 | 1014.6 |
| 20260504202101 | 79 | 287 | 3.0 | 6.0 | 0.00 | 0.00 | 0.00 | 32 | 1014.5 |
| 20260504201900 | 80 | 319 | 3.0 | 5.0 | 0.00 | 0.00 | 0.00 | 33 | 1014.6 |
| 20260504201803 | 80 | 255 | 2.0 | 5.0 | 0.00 | 0.00 | 0.00 | 33 | 1014.6 |
| 20260504201701 | 80 | 313 | 1.0 | 5.0 | 0.00 | 0.00 | 0.00 | 33 | 1014.5 |
| 20260504201602 | 80 | 306 | 2.0 | 5.0 | 0.00 | 0.00 | 0.00 | 34 | 1014.7 |
| 20260504201503 | 80 | 280 | 0.0 | 5.0 | 0.00 | 0.00 | 0.00 | 35 | 1014.7 |
| 20260504201401 | 80 | 300 | 0.0 | 5.0 | 0.00 | 0.00 | 0.00 | 35 | 1014.7 |
| 20260504201301 | 80 | 316 | 2.0 | 5.0 | 0.00 | 0.00 | 0.00 | 33 | 1014.7 |
| 20260504201201 | 80 | 345 | 0.0 | 5.0 | 0.00 | 0.00 | 0.00 | 33 | 1014.7 |